GFSGBSN_500_temp_000.txt.gz
Temp
-4 -3 -3 -3 -3 -3 -3 -3 -3 -3 -3 -3 -3 -4 -4 -4 -3 -3 -3 -3 -2 -2 -1 -1 -0 -1 -1 -2 -1 -2 -2 -3 -4 -4 -6 -6 -7 -6 -6 -7 -8 -8 -8 -8 -7 -6 -6
-4 -4 -4 -4 -4 -4 -4 -4 -4 -3 -3 -3 -3 -4 -4 -4 -4 -3 -3 -3 -3 -3 -2 -1 -1 -1 -1 -1 -2 -2 -2 -3 -4 -5 -6 -6 -7 -7 -6 -7 -7 -7 -8 -8 -8 -7 -6
-4 -4 -4 -4 -4 -4 -4 -4 -4 -4 -4 -4 -3 -3 -3 -4 -4 -4 -3 -3 -3 -3 -3 -2 -2 -1 -1 -1 -1 -2 -2 -3 -3 -4 -6 -7 -7 -7 -7 -6 -8 -7 -8 -7 -8 -7 -6
-5 -4 -4 -4 -4 -4 -4 -4 -4 -4 -4 -4 -4 -4 -4 -4 -4 -5 -4 -4 -3 -3 -3 -3 -2 -2 -2 -1 -2 -2 -2 -2 -3 -4 -5 -6 -6 -6 -7 -6 -7 -7 -7 -8 -8 -7 -7
-5 -5 -4 -4 -4 -4 -4 -4 -4 -4 -4 -4 -4 -4 -4 -4 -4 -4 -4 -4 -4 -4 -3 -3 -3 -2 -3 -2 -2 -2 -2 -2 -3 -4 -4 -5 -6 -6 -6 -5 -6 -6 -6 -8 -8 -7 -8
-5 -5 -5 -4 -4 -4 -4 -4 -4 -5 -5 -5 -4 -4 -4 -4 -5 -5 -5 -4 -4 -4 -4 -4 -3 -3 -3 -3 -2 -2 -3 -2 -2 -3 -4 -4 -5 -5 -5 -5 -4 -5 -6 -7 -7 -8 -8
-5 -5 -5 -5 -5 -5 -5 -5 -5 -4 -5 -5 -5 -5 -5 -5 -5 -5 -5 -4 -5 -4 -5 -4 -4 -3 -3 -3 -2 -2 -3 -3 -2 -2 -2 -3 -3 -3 -4 -5 -6 -6 -7 -7 -8 -7 -8
-5 -5 -5 -5 -5 -5 -5 -5 -5 -5 -5 -5 -5 -5 -5 -5 -5 -5 -5 -5 -5 -4 -4 -5 -4 -4 -4 -3 -3 -3 -3 -3 -3 -2 -2 -2 -2 -5 -6 -6 -6 -6 -6 -7 -8 -8 -8
-5 -6 -6 -6 -5 -5 -5 -5 -5 -5 -5 -5 -5 -5 -6 -6 -6 -5 -5 -5 -5 -4 -3 -6 -5 -4 -4 -3 -3 -4 -3 -3 -3 -3 -2 -2 -3 -6 -7 -6 -6 -5 -6 -7 -7 -8 -8
-6 -6 -6 -6 -6 -6 -5 -5 -5 -5 -5 -5 -5 -6 -6 -6 -6 -6 -6 -5 -5 -4 -4 -6 -5 -5 -5 -4 -3 -5 -4 -4 -4 -4 -2 -2 -4 -6 -6 -6 -6 -6 -6 -7 -7 -8 -8
-7 -7 -6 -6 -6 -6 -6 -6 -6 -6 -6 -6 -6 -6 -6 -6 -6 -6 -6 -6 -6 -5 -5 -6 -5 -5 -5 -5 -5 -4 -5 -5 -4 -4 -4 -3 -3 -5 -5 -5 -6 -7 -7 -8 -8 -9 -8
-7 -7 -7 -7 -7 -7 -6 -6 -6 -6 -6 -7 -6 -6 -6 -6 -6 -6 -7 -7 -6 -6 -5 -7 -6 -6 -6 -6 -6 -5 -5 -6 -5 -5 -5 -4 -4 -6 -6 -6 -7 -7 -9 -9 -8 -8 -8
-7 -7 -7 -6 -7 -7 -7 -7 -7 -7 -7 -7 -7 -7 -6 -7 -7 -7 -7 -7 -7 -6 -7 -7 -7 -7 -6 -7 -7 -6 -6 -6 -6 -6 -6 -5 -4 -5 -7 -7 -8 -8 -8 -8 -8 -8 -8
-7 -7 -7 -7 -7 -7 -7 -7 -8 -8 -8 -8 -8 -8 -8 -7 -7 -7 -7 -7 -7 -6 -7 -8 -7 -8 -8 -9 -9 -7 -7 -7 -7 -7 -6 -6 -6 -4 -6 -7 -8 -8 -8 -8 -8 -8 -8
-7 -7 -7 -7 -8 -7 -7 -7 -8 -8 -9 -9 -9 -9 -9 -8 -8 -8 -8 -7 -7 -7 -9 -9 -8 -8 -9 -9 -10 -8 -7 -8 -8 -7 -7 -7 -6 -5 -7 -7 -8 -8 -8 -8 -8 -8 -8
-7 -8 -8 -8 -8 -8 -8 -8 -8 -9 -9 -9 -10 -10 -9 -9 -9 -8 -8 -7 -7 -9 -9 -9 -9 -9 -10 -10 -10 -9 -8 -8 -9 -9 -8 -8 -7 -7 -6 -7 -8 -8 -8 -8 -8 -8 -8
-9 -9 -9 -9 -9 -9 -9 -9 -9 -9 -10 -10 -10 -10 -10 -10 -10 -9 -8 -8 -9 -10 -10 -9 -9 -9 -10 -10 -10 -10 -8 -9 -9 -10 -10 -9 -8 -8 -7 -7 -7 -8 -8 -8 -8 -8 -8
-9 -9 -9 -9 -10 -10 -10 -10 -10 -10 -11 -11 -11 -11 -11 -11 -10 -10 -9 -9 -9 -10 -10 -9 -10 -10 -11 -10 -10 -10 -9 -9 -10 -11 -11 -10 -10 -8 -7 -7 -7 -7 -8 -8 -8 -8 -8
-9 -9 -10 -11 -11 -12 -12 -12 -12 -12 -11 -12 -11 -11 -12 -12 -11 -10 -10 -9 -10 -10 -11 -10 -10 -10 -11 -11 -10 -11 -10 -10 -12 -12 -12 -11 -10 -9 -9 -9 -8 -8 -7 -8 -8 -8 -8
-11 -12 -12 -13 -13 -14 -14 -14 -13 -13 -13 -13 -13 -13 -13 -13 -13 -12 -11 -10 -11 -11 -11 -11 -11 -11 -11 -11 -11 -10 -11 -11 -12 -12 -12 -12 -10 -9 -7 -7 -8 -8 -8 -9 -8 -8 -8
-14 -14 -15 -15 -16 -16 -15 -15 -15 -15 -15 -15 -15 -15 -15 -15 -14 -13 -12 -11 -12 -12 -12 -12 -11 -12 -12 -11 -11 -11 -11 -11 -12 -12 -11 -11 -10 -9 -7 -8 -8 -8 -7 -7 -8 -7 -8
-17 -17 -18 -18 -18 -18 -18 -18 -18 -18 -18 -17 -17 -17 -16 -16 -15 -14 -14 -13 -13 -13 -13 -12 -12 -12 -12 -11 -11 -11 -11 -12 -11 -11 -11 -11 -10 -10 -8 -8 -9 -9 -9 -8 -8 -9 -8
-18 -18 -18 -19 -20 -20 -21 -21 -21 -21 -20 -20 -19 -18 -18 -17 -17 -15 -15 -14 -14 -14 -13 -13 -13 -12 -12 -12 -11 -12 -11 -11 -12 -11 -11 -10 -11 -10 -9 -9 -9 -10 -9 -9 -9 -9 -8
-20 -21 -22 -22 -22 -22 -22 -22 -22 -22 -21 -21 -20 -20 -20 -19 -19 -18 -16 -15 -15 -15 -14 -14 -14 -13 -13 -12 -12 -12 -12 -12 -12 -11 -11 -11 -10 -10 -10 -10 -10 -9 -9 -9 -9 -9 -8
-23 -24 -24 -24 -24 -24 -24 -23 -23 -22 -22 -22 -22 -21 -20 -20 -20 -20 -19 -17 -16 -16 -15 -15 -15 -14 -13 -13 -13 -12 -12 -12 -12 -11 -10 -11 -11 -10 -10 -10 -10 -10 -9 -9 -9 -8 -8
-24 -24 -25 -25 -25 -25 -24 -24 -25 -25 -24 -22 -23 -22 -22 -21 -21 -21 -20 -19 -18 -17 -16 -16 -16 -15 -14 -13 -13 -13 -12 -12 -11 -11 -11 -11 -11 -10 -10 -10 -9 -9 -9 -9 -8 -10 -9
-24 -24 -24 -24 -24 -24 -25 -25 -25 -25 -25 -24 -24 -23 -22 -22 -22 -21 -21 -20 -19 -18 -17 -16 -16 -15 -14 -14 -14 -13 -13 -12 -13 -12 -11 -10 -11 -11 -10 -9 -9 -9 -9 -9 -9 -8 -10
-24 -24 -24 -25 -25 -25 -25 -25 -25 -25 -25 -24 -24 -23 -23 -22 -22 -21 -21 -20 -20 -19 -18 -17 -17 -15 -15 -14 -14 -13 -13 -13 -13 -12 -13 -11 -10 -10 -11 -9 -9 -9 -9 -9 -9 -9 -10
-24 -25 -25 -25 -26 -26 -26 -26 -26 -25 -25 -24 -24 -23 -23 -23 -23 -22 -21 -21 -20 -20 -19 -18 -17 -16 -16 -15 -14 -14 -14 -14 -14 -13 -12 -12 -11 -11 -11 -10 -10 -9 -9 -9 -9 -10 -10

GFSGBSN_500_temp_003.txt.gz
Temp
-4 -4 -4 -4 -3 -3 -4 -4 -4 -4 -4 -4 -3 -3 -3 -3 -3 -3 -3 -3 -3 -3 -3 -2 -2 -2 -2 -2 -1 -2 -2 -3 -4 -4 -4 -6 -6 -6 -6 -7 -8 -8 -8 -7 -8 -7 -6
-5 -5 -4 -4 -4 -4 -4 -4 -4 -4 -4 -4 -4 -3 -3 -3 -3 -3 -3 -4 -4 -3 -3 -3 -3 -2 -2 -2 -2 -2 -2 -2 -3 -4 -4 -5 -6 -7 -6 -7 -7 -7 -8 -8 -8 -7 -6
-5 -5 -5 -5 -4 -4 -4 -4 -4 -4 -4 -4 -4 -4 -4 -4 -4 -4 -3 -4 -4 -4 -4 -4 -3 -3 -2 -2 -2 -2 -2 -2 -3 -3 -4 -6 -7 -7 -6 -7 -7 -7 -7 -7 -8 -7 -6
-4 -5 -5 -5 -5 -5 -4 -4 -4 -4 -4 -4 -4 -4 -4 -4 -4 -4 -4 -4 -4 -4 -4 -4 -4 -3 -3 -2 -2 -2 -2 -2 -3 -3 -4 -5 -6 -7 -7 -6 -7 -7 -7 -7 -7 -7 -6
-5 -5 -5 -5 -5 -4 -4 -4 -4 -4 -4 -4 -4 -4 -4 -4 -4 -4 -4 -4 -4 -5 -4 -4 -4 -4 -3 -3 -3 -2 -3 -3 -3 -3 -4 -3 -4 -5 -6 -6 -6 -7 -7 -7 -7 -7 -7
-5 -5 -5 -5 -5 -5 -5 -5 -5 -5 -4 -4 -4 -4 -4 -4 -5 -5 -4 -4 -4 -4 -5 -4 -4 -4 -4 -3 -3 -3 -3 -3 -3 -3 -3 -3 -3 -4 -5 -5 -5 -6 -7 -7 -8 -8 -7
-6 -5 -5 -5 -5 -5 -6 -5 -5 -5 -5 -5 -5 -5 -4 -4 -5 -5 -4 -5 -5 -5 -5 -5 -4 -4 -4 -3 -3 -3 -3 -3 -3 -3 -2 -3 -2 -2 -3 -5 -6 -7 -7 -8 -8 -8 -8
-5 -5 -5 -5 -5 -5 -5 -5 -5 -5 -5 -5 -5 -5 -5 -5 -5 -5 -4 -5 -5 -4 -5 -5 -4 -4 -4 -4 -4 -4 -4 -3 -3 -3 -3 -2 -1 -3 -6 -6 -6 -7 -7 -7 -8 -8 -8
-6 -5 -5 -5 -5 -5 -5 -5 -5 -5 -5 -5 -5 -5 -5 -5 -5 -5 -5 -5 -5 -4 -4 -6 -5 -4 -4 -4 -4 -5 -4 -4 -4 -4 -3 -3 -2 -4 -5 -6 -5 -6 -7 -7 -7 -8 -8
-6 -6 -5 -5 -5 -5 -5 -5 -5 -5 -5 -5 -5 -5 -6 -6 -5 -5 -5 -5 -5 -4 -4 -5 -5 -5 -4 -4 -5 -4 -4 -4 -4 -4 -4 -4 -4 -4 -5 -6 -5 -5 -7 -7 -8 -8 -7
-6 -6 -6 -6 -6 -5 -5 -5 -5 -6 -6 -6 -6 -6 -6 -6 -6 -5 -5 -6 -5 -5 -5 -6 -5 -5 -5 -5 -5 -5 -5 -5 -5 -5 -5 -4 -4 -4 -5 -5 -6 -5 -7 -7 -8 -8 -8
-6 -6 -6 -6 -6 -6 -5 -5 -5 -5 -6 -6 -6 -6 -6 -6 -6 -6 -6 -6 -6 -5 -4 -6 -6 -6 -5 -5 -5 -5 -5 -5 -5 -6 -6 -5 -6 -6 -6 -7 -7 -7 -7 -7 -7 -8 -8
-6 -6 -5 -6 -5 -5 -6 -6 -6 -6 -6 -6 -6 -6 -6 -7 -7 -7 -7 -6 -6 -5 -6 -6 -7 -6 -6 -6 -6 -5 -5 -5 -5 -5 -5 -6 -6 -6 -6 -8 -9 -8 -8 -9 -8 -8 -8
-6 -6 -6 -7 -6 -6 -6 -6 -6 -6 -6 -6 -7 -7 -7 -8 -8 -7 -7 -7 -6 -5 -6 -7 -7 -7 -7 -6 -6 -6 -6 -5 -5 -5 -6 -6 -6 -6 -6 -7 -8 -8 -8 -8 -9 -8 -8
-6 -6 -6 -6 -7 -7 -6 -6 -7 -7 -7 -7 -7 -8 -8 -8 -8 -8 -8 -7 -6 -6 -6 -7 -8 -8 -7 -6 -6 -7 -6 -6 -6 -7 -6 -6 -6 -7 -7 -7 -8 -8 -8 -8 -9 -9 -9
-7 -7 -7 -7 -7 -8 -8 -8 -8 -8 -8 -8 -8 -8 -9 -9 -9 -9 -9 -8 -7 -7 -7 -8 -8 -8 -8 -8 -7 -7 -7 -7 -7 -7 -8 -7 -7 -7 -8 -8 -9 -8 -8 -9 -9 -9 -9
-7 -7 -7 -8 -8 -8 -9 -8 -8 -9 -9 -9 -9 -9 -10 -10 -10 -10 -9 -9 -8 -8 -8 -8 -8 -8 -8 -9 -9 -8 -7 -8 -8 -8 -8 -9 -8 -8 -8 -9 -9 -9 -8 -9 -9 -9 -9
-8 -9 -9 -9 -9 -9 -9 -9 -9 -9 -10 -10 -10 -11 -11 -12 -12 -11 -11 -10 -10 -9 -9 -9 -9 -9 -9 -10 -9 -9 -8 -9 -10 -9 -9 -9 -9 -9 -8 -8 -9 -9 -8 -8 -9 -8 -8
-8 -8 -9 -9 -10 -11 -11 -11 -11 -12 -11 -12 -12 -11 -12 -12 -12 -12 -12 -11 -11 -10 -9 -9 -9 -10 -9 -10 -10 -9 -9 -10 -11 -10 -10 -10 -10 -10 -9 -9 -8 -8 -8 -8 -9 -9 -8
-10 -10 -10 -11 -13 -13 -14 -14 -14 -14 -13 -13 -13 -13 -13 -13 -13 -13 -13 -12 -11 -11 -10 -10 -10 -10 -10 -10 -11 -10 -10 -12 -12 -11 -11 -11 -10 -10 -9 -8 -8 -8 -8 -8 -9 -9 -9
-12 -13 -14 -15 -17 -16 -17 -17 -18 -17 -17 -16 -15 -15 -15 -15 -15 -14 -13 -13 -12 -11 -11 -11 -10 -10 -11 -10 -11 -10 -11 -12 -12 -12 -12 -11 -10 -11 -10 -8 -9 -8 -8 -8 -8 -8 -8
-16 -17 -17 -18 -18 -20 -21 -21 -21 -21 -20 -20 -19 -18 -18 -18 -17 -16 -15 -14 -14 -13 -12 -12 -11 -12 -12 -10 -11 -12 -12 -12 -12 -12 -12 -12 -11 -11 -10 -10 -10 -9 -8 -8 -8 -8 -8
-19 -19 -19 -20 -21 -22 -23 -23 -23 -23 -22 -21 -21 -21 -20 -19 -19 -19 -17 -16 -15 -14 -14 -13 -13 -13 -12 -11 -12 -12 -12 -12 -12 -12 -12 -12 -11 -11 -10 -11 -10 -10 -10 -9 -8 -8 -8
-21 -21 -22 -23 -23 -24 -25 -25 -24 -24 -23 -23 -23 -22 -21 -19 -20 -20 -19 -18 -17 -16 -16 -15 -14 -14 -13 -13 -12 -12 -12 -12 -12 -12 -12 -12 -11 -12 -11 -11 -11 -9 -9 -9 -9 -8 -9
-23 -23 -24 -24 -24 -24 -25 -25 -25 -25 -25 -24 -24 -23 -23 -22 -22 -21 -21 -19 -19 -18 -17 -17 -16 -15 -14 -14 -13 -13 -13 -13 -12 -12 -12 -12 -12 -11 -11 -11 -11 -10 -10 -10 -10 -9 -8
-24 -24 -24 -24 -24 -24 -24 -25 -25 -25 -25 -25 -24 -24 -23 -22 -23 -22 -22 -20 -21 -20 -18 -18 -18 -16 -15 -15 -14 -14 -13 -12 -12 -12 -12 -12 -12 -12 -12 -12 -10 -10 -10 -10 -10 -10 -9
-25 -25 -25 -25 -24 -25 -25 -25 -25 -25 -25 -25 -25 -24 -24 -22 -23 -23 -22 -22 -21 -20 -19 -19 -18 -18 -16 -15 -15 -14 -13 -13 -13 -12 -12 -12 -12 -12 -12 -11 -10 -10 -10 -10 -10 -10 -9
-25 -25 -25 -25 -25 -25 -25 -26 -26 -26 -26 -25 -25 -25 -24 -23 -24 -23 -22 -22 -21 -20 -20 -19 -19 -18 -17 -16 -15 -15 -14 -13 -13 -13 -13 -12 -12 -12 -12 -11 -11 -10 -10 -10 -10 -10 -9
-25 -26 -26 -26 -26 -26 -26 -27 -27 -27 -27 -26 -25 -25 -24 -24 -24 -23 -22 -22 -22 -21 -20 -20 -19 -18 -17 -16 -15 -15 -14 -13 -13 -13 -13 -12 -12 -11 -11 -11 -10 -10 -10 -10 -10 -10 -9

GFSGBSN_500_temp_006.txt.gz
Temp
-4 -4 -4 -4 -4 -4 -4 -4 -4 -3 -3 -3 -3 -3 -3 -3 -3 -3 -3 -3 -3 -3 -3 -3 -3 -3 -2 -2 -1 -2 -2 -3 -3 -4 -4 -5 -5 -6 -6 -7 -7 -7 -7 -7 -7 -6 -6
-4 -4 -4 -4 -4 -4 -4 -4 -4 -4 -4 -4 -4 -4 -3 -3 -3 -4 -4 -4 -3 -3 -4 -3 -3 -3 -3 -2 -2 -2 -2 -2 -3 -3 -5 -4 -6 -6 -6 -7 -7 -7 -7 -7 -6 -6 -6
-4 -5 -5 -5 -5 -5 -4 -4 -4 -4 -4 -4 -4 -4 -4 -4 -4 -4 -4 -4 -4 -4 -4 -4 -4 -3 -3 -3 -2 -2 -2 -2 -3 -3 -3 -5 -6 -6 -6 -6 -7 -7 -7 -7 -6 -6 -6
-5 -5 -5 -5 -5 -5 -5 -5 -4 -4 -4 -4 -4 -4 -4 -4 -4 -4 -4 -4 -4 -4 -4 -4 -4 -4 -3 -3 -3 -2 -3 -3 -3 -3 -3 -4 -5 -6 -6 -6 -6 -7 -7 -8 -6 -7 -7
-5 -5 -5 -5 -5 -5 -5 -5 -5 -5 -5 -4 -4 -4 -4 -4 -4 -4 -4 -4 -4 -4 -4 -4 -4 -4 -4 -3 -3 -3 -3 -3 -3 -3 -3 -3 -4 -5 -6 -7 -7 -7 -8 -8 -7 -6 -7
-5 -5 -5 -5 -5 -5 -5 -5 -5 -5 -5 -5 -5 -4 -4 -4 -4 -4 -4 -4 -4 -4 -4 -4 -4 -5 -4 -4 -3 -3 -3 -3 -3 -3 -3 -2 -3 -4 -5 -6 -6 -8 -7 -8 -8 -7 -7
-5 -5 -5 -5 -5 -5 -5 -4 -5 -5 -5 -5 -5 -5 -4 -4 -4 -4 -4 -4 -4 -4 -4 -4 -4 -4 -4 -4 -4 -3 -3 -4 -3 -3 -4 -3 -2 -2 -4 -5 -6 -8 -8 -8 -8 -8 -8
-5 -5 -5 -5 -5 -4 -4 -4 -4 -4 -4 -5 -5 -5 -5 -5 -4 -4 -4 -4 -4 -4 -5 -4 -4 -4 -4 -4 -4 -4 -3 -3 -4 -4 -4 -4 -2 -3 -5 -6 -6 -8 -8 -8 -8 -8 -8
-5 -5 -5 -5 -5 -5 -5 -5 -5 -4 -4 -4 -4 -5 -5 -5 -5 -5 -5 -4 -4 -4 -4 -5 -4 -4 -4 -4 -4 -4 -3 -4 -4 -4 -4 -4 -3 -4 -4 -5 -6 -7 -8 -8 -7 -8 -8
-5 -5 -5 -5 -5 -5 -5 -5 -5 -5 -5 -5 -4 -5 -5 -5 -5 -5 -5 -5 -5 -5 -4 -5 -5 -4 -4 -4 -4 -4 -4 -4 -4 -4 -4 -5 -5 -4 -4 -4 -5 -7 -7 -8 -8 -8 -8
-5 -5 -5 -5 -5 -5 -5 -5 -5 -5 -5 -5 -5 -5 -5 -5 -5 -5 -5 -5 -5 -5 -5 -4 -4 -4 -5 -4 -5 -4 -4 -4 -4 -4 -5 -4 -5 -4 -4 -4 -5 -5 -8 -7 -8 -8 -8
-5 -6 -5 -5 -5 -5 -5 -5 -5 -5 -5 -5 -5 -5 -5 -5 -5 -5 -5 -5 -5 -5 -4 -5 -5 -5 -5 -5 -5 -5 -5 -5 -5 -5 -5 -5 -5 -5 -5 -6 -6 -6 -9 -9 -8 -8 -8
-6 -6 -6 -5 -5 -5 -5 -5 -5 -5 -5 -5 -5 -5 -6 -6 -6 -6 -6 -6 -6 -5 -5 -5 -6 -6 -6 -5 -5 -5 -5 -5 -5 -5 -4 -5 -5 -5 -5 -6 -7 -7 -8 -9 -9 -8 -8
-6 -6 -5 -5 -5 -5 -5 -5 -5 -5 -5 -5 -6 -6 -6 -6 -7 -6 -6 -7 -5 -5 -5 -6 -6 -6 -6 -6 -6 -5 -6 -5 -5 -5 -5 -5 -5 -5 -5 -6 -6 -6 -7 -8 -8 -8 -8
-6 -5 -5 -5 -5 -5 -5 -6 -6 -6 -6 -6 -7 -7 -7 -7 -8 -8 -7 -6 -5 -6 -6 -7 -7 -7 -6 -6 -6 -6 -6 -6 -5 -5 -6 -6 -6 -6 -6 -6 -8 -7 -7 -8 -8 -8 -7
-5 -5 -5 -6 -6 -6 -6 -6 -6 -7 -8 -8 -8 -8 -8 -8 -8 -8 -8 -6 -6 -7 -7 -8 -8 -7 -7 -7 -6 -7 -6 -6 -6 -6 -7 -7 -7 -7 -7 -7 -7 -8 -7 -8 -8 -8 -7
-5 -5 -5 -6 -6 -6 -7 -7 -7 -8 -8 -9 -8 -9 -9 -9 -9 -9 -8 -8 -8 -8 -9 -9 -8 -8 -7 -8 -7 -7 -7 -7 -7 -7 -7 -8 -8 -9 -8 -7 -7 -8 -9 -8 -9 -8 -8
-5 -5 -5 -5 -6 -7 -7 -7 -8 -8 -8 -9 -9 -9 -9 -10 -10 -9 -9 -9 -9 -9 -9 -10 -9 -9 -8 -8 -8 -8 -7 -8 -7 -8 -8 -9 -9 -8 -7 -7 -8 -10 -9 -10 -9 -8 -8
-6 -7 -7 -7 -8 -8 -9 -9 -9 -10 -10 -10 -10 -10 -10 -11 -11 -11 -11 -11 -10 -10 -10 -11 -10 -9 -9 -9 -9 -9 -8 -9 -9 -9 -9 -10 -9 -11 -9 -10 -10 -10 -10 -10 -10 -9 -8
-9 -9 -10 -10 -12 -12 -13 -13 -14 -15 -15 -14 -14 -14 -14 -13 -13 -13 -13 -11 -11 -12 -12 -11 -11 -10 -10 -9 -10 -9 -9 -10 -10 -10 -10 -9 -11 -9 -10 -9 -10 -9 -8 -9 -10 -9 -9
-13 -14 -14 -15 -16 -16 -17 -18 -18 -18 -18 -18 -19 -19 -18 -18 -17 -16 -15 -14 -13 -13 -12 -13 -12 -11 -11 -11 -10 -10 -10 -11 -11 -11 -11 -10 -10 -12 -10 -10 -11 -11 -11 -9 -9 -9 -9
-16 -16 -17 -19 -20 -21 -21 -21 -22 -22 -21 -22 -22 -22 -21 -20 -20 -19 -18 -16 -15 -14 -14 -13 -13 -12 -12 -11 -11 -11 -11 -11 -12 -12 -11 -11 -11 -11 -12 -12 -12 -11 -11 -11 -11 -8 -10
-18 -20 -21 -22 -23 -23 -23 -23 -24 -24 -24 -24 -25 -24 -23 -22 -21 -21 -20 -18 -17 -17 -15 -15 -14 -13 -12 -12 -11 -11 -11 -11 -12 -12 -12 -12 -11 -11 -12 -11 -11 -11 -11 -11 -11 -10 -9
-22 -23 -23 -23 -23 -23 -24 -24 -24 -24 -24 -25 -25 -25 -25 -23 -22 -21 -21 -20 -19 -18 -17 -17 -16 -15 -14 -13 -12 -13 -12 -12 -12 -12 -12 -11 -11 -12 -12 -10 -12 -11 -11 -11 -11 -11 -9
-23 -24 -24 -24 -24 -25 -25 -25 -25 -25 -25 -25 -26 -26 -25 -24 -24 -22 -22 -21 -21 -20 -19 -19 -18 -18 -16 -15 -14 -14 -13 -13 -12 -12 -12 -12 -12 -13 -13 -12 -11 -11 -11 -11 -11 -11 -11
-24 -25 -25 -24 -25 -25 -25 -25 -25 -25 -25 -25 -25 -26 -25 -25 -25 -24 -23 -22 -21 -21 -20 -19 -18 -18 -18 -18 -17 -16 -14 -13 -13 -12 -13 -13 -12 -12 -13 -12 -12 -12 -11 -11 -11 -10 -10
-26 -26 -26 -25 -25 -26 -26 -26 -25 -25 -25 -25 -25 -26 -25 -25 -25 -25 -24 -23 -22 -21 -20 -20 -19 -18 -19 -19 -18 -16 -15 -15 -14 -13 -12 -12 -12 -12 -13 -13 -13 -11 -11 -11 -11 -10 -10
-27 -26 -26 -26 -26 -26 -26 -26 -26 -26 -26 -26 -26 -25 -25 -25 -25 -25 -24 -23 -23 -22 -21 -21 -19 -19 -19 -18 -17 -17 -15 -15 -15 -14 -12 -12 -12 -13 -13 -13 -13 -10 -11 -11 -10 -10 -10
-27 -26 -26 -26 -26 -26 -26 -27 -27 -27 -27 -27 -27 -26 -26 -25 -25 -24 -23 -23 -22 -22 -21 -21 -20 -19 -19 -18 -17 -17 -16 -13 -14 -14 -14 -14 -14 -14 -12 -13 -12 -12 -11 -11 -11 -10 -10

GFSGBSN_500_temp_009.txt.gz
Temp
-4 -4 -4 -4 -4 -4 -4 -4 -4 -4 -4 -3 -3 -3 -3 -3 -3 -3 -3 -3 -3 -3 -3 -3 -3 -3 -3 -2 -2 -2 -2 -3 -3 -4 -4 -5 -5 -6 -6 -7 -8 -8 -8 -8 -8 -8 -8
-4 -4 -4 -4 -4 -5 -5 -4 -4 -4 -4 -4 -4 -3 -3 -3 -3 -4 -3 -3 -3 -3 -3 -3 -3 -3 -3 -2 -2 -3 -2 -3 -3 -3 -4 -5 -5 -6 -7 -7 -8 -8 -8 -8 -8 -8 -6
-4 -4 -4 -4 -4 -4 -5 -5 -4 -4 -4 -4 -4 -3 -4 -4 -4 -4 -4 -4 -4 -3 -3 -3 -3 -3 -3 -3 -3 -3 -2 -3 -3 -3 -4 -5 -5 -5 -6 -6 -7 -8 -8 -8 -7 -8 -7
-4 -4 -4 -5 -5 -5 -4 -4 -4 -4 -4 -4 -4 -4 -4 -4 -4 -4 -4 -4 -4 -4 -3 -3 -3 -3 -3 -3 -3 -3 -3 -2 -3 -3 -3 -4 -5 -5 -6 -7 -8 -8 -7 -7 -7 -8 -7
-4 -4 -4 -4 -5 -5 -4 -4 -4 -4 -4 -4 -4 -4 -4 -4 -4 -4 -4 -4 -4 -4 -4 -3 -3 -3 -3 -3 -3 -3 -3 -3 -3 -3 -3 -4 -4 -5 -5 -6 -6 -8 -7 -7 -7 -6 -7
-5 -5 -5 -5 -5 -5 -4 -4 -4 -4 -4 -4 -4 -4 -4 -4 -4 -4 -4 -4 -4 -4 -4 -4 -3 -3 -3 -3 -3 -4 -3 -3 -3 -3 -3 -3 -4 -5 -5 -6 -6 -8 -7 -6 -7 -6 -8
-5 -5 -5 -5 -5 -5 -4 -4 -4 -4 -3 -3 -4 -4 -4 -4 -4 -4 -4 -4 -4 -4 -4 -4 -3 -3 -3 -3 -3 -3 -3 -3 -3 -3 -4 -3 -3 -3 -4 -5 -6 -7 -6 -6 -6 -7 -6
-5 -5 -5 -5 -5 -5 -4 -4 -4 -4 -4 -4 -4 -4 -4 -3 -4 -4 -4 -4 -4 -4 -4 -4 -3 -4 -3 -3 -3 -3 -3 -3 -3 -3 -4 -4 -3 -4 -5 -6 -6 -8 -7 -6 -6 -7 -7
-5 -5 -5 -5 -5 -5 -5 -4 -4 -4 -4 -4 -4 -4 -4 -4 -4 -4 -4 -4 -4 -4 -4 -4 -3 -4 -4 -3 -4 -3 -3 -3 -3 -3 -3 -4 -4 -4 -5 -6 -7 -8 -7 -6 -6 -6 -7
-5 -5 -5 -5 -5 -5 -5 -5 -4 -4 -4 -4 -4 -4 -4 -4 -4 -4 -4 -4 -4 -4 -3 -4 -4 -3 -4 -4 -3 -3 -3 -3 -3 -3 -4 -4 -5 -4 -5 -5 -6 -8 -8 -7 -6 -7 -6
-5 -5 -5 -5 -5 -5 -5 -5 -5 -4 -4 -4 -4 -4 -4 -4 -4 -4 -4 -4 -4 -5 -4 -3 -3 -4 -4 -4 -3 -4 -4 -4 -4 -4 -4 -4 -4 -4 -4 -4 -5 -7 -8 -7 -7 -6 -6
-5 -5 -5 -5 -5 -5 -5 -5 -4 -4 -5 -5 -5 -4 -4 -4 -4 -4 -4 -5 -5 -5 -4 -4 -3 -4 -4 -4 -4 -4 -4 -4 -4 -4 -4 -4 -5 -5 -4 -5 -5 -6 -8 -7 -7 -6 -6
-6 -5 -6 -6 -5 -5 -5 -5 -5 -4 -4 -4 -4 -5 -4 -5 -5 -5 -5 -5 -5 -4 -4 -4 -4 -5 -5 -4 -4 -5 -4 -4 -4 -4 -4 -4 -4 -5 -5 -5 -5 -6 -8 -8 -7 -6 -6
-6 -6 -6 -5 -5 -5 -5 -5 -4 -5 -5 -5 -6 -5 -5 -6 -6 -5 -5 -5 -4 -3 -4 -6 -5 -5 -6 -6 -5 -5 -5 -5 -4 -4 -5 -5 -4 -4 -4 -4 -5 -6 -7 -7 -7 -6 -6
-6 -5 -5 -5 -5 -5 -4 -4 -5 -5 -5 -5 -6 -6 -7 -7 -7 -7 -6 -5 -4 -4 -6 -6 -7 -7 -6 -7 -7 -6 -5 -5 -5 -5 -5 -5 -4 -5 -4 -5 -6 -7 -7 -7 -7 -6 -6
-5 -5 -4 -4 -4 -4 -4 -5 -5 -5 -5 -5 -6 -7 -7 -7 -8 -8 -7 -5 -5 -6 -6 -7 -7 -8 -8 -7 -8 -7 -6 -6 -5 -5 -5 -5 -7 -7 -6 -7 -5 -7 -7 -8 -8 -6 -6
-5 -4 -4 -4 -4 -4 -4 -4 -4 -5 -6 -6 -6 -7 -7 -8 -8 -8 -7 -6 -7 -7 -8 -8 -7 -8 -8 -10 -10 -9 -6 -8 -8 -6 -6 -6 -6 -8 -9 -4 -4 -6 -6 -8 -8 -7 -6
-5 -5 -6 -6 -6 -6 -7 -7 -6 -6 -7 -7 -8 -8 -8 -10 -10 -9 -8 -8 -9 -8 -9 -8 -8 -8 -9 -11 -11 -11 -9 -9 -10 -7 -7 -6 -6 -7 -7 -8 -9 -9 -7 -8 -8 -8 -7
-7 -8 -8 -9 -10 -11 -11 -11 -10 -10 -9 -10 -10 -11 -13 -12 -11 -12 -11 -10 -10 -10 -9 -10 -8 -8 -10 -10 -11 -10 -9 -10 -11 -9 -8 -9 -7 -7 -9 -9 -9 -6 -6 -7 -8 -8 -7
-10 -11 -12 -13 -14 -14 -14 -14 -14 -14 -14 -15 -14 -14 -17 -16 -15 -14 -14 -13 -11 -12 -11 -11 -10 -10 -11 -11 -10 -10 -10 -10 -12 -10 -8 -9 -10 -7 -8 -8 -9 -9 -8 -9 -8 -8 -7
-14 -14 -14 -14 -16 -16 -17 -18 -19 -19 -20 -20 -20 -19 -20 -19 -20 -20 -17 -16 -16 -13 -12 -13 -12 -11 -11 -13 -11 -11 -10 -11 -11 -10 -9 -9 -9 -9 -8 -10 -10 -9 -9 -9 -9 -8 -8
-14 -15 -16 -19 -20 -21 -21 -22 -24 -23 -23 -23 -23 -23 -23 -22 -22 -22 -21 -20 -18 -17 -16 -13 -14 -14 -14 -15 -13 -12 -13 -13 -11 -12 -10 -9 -9 -10 -10 -10 -10 -10 -9 -9 -9 -9 -9
-18 -20 -21 -22 -23 -23 -23 -24 -24 -24 -24 -24 -24 -24 -24 -24 -24 -24 -22 -21 -21 -19 -18 -17 -16 -14 -15 -17 -16 -15 -15 -14 -13 -13 -12 -10 -12 -12 -11 -11 -10 -10 -9 -10 -9 -9 -9
-21 -23 -24 -24 -25 -25 -25 -25 -24 -25 -24 -24 -24 -24 -25 -25 -25 -25 -24 -22 -22 -21 -21 -19 -18 -17 -16 -16 -14 -13 -14 -14 -14 -14 -12 -13 -12 -12 -11 -10 -10 -8 -10 -10 -10 -10 -10
-24 -26 -27 -26 -26 -26 -25 -25 -25 -25 -25 -25 -25 -25 -26 -26 -26 -26 -25 -24 -23 -21 -20 -20 -19 -18 -17 -16 -15 -15 -16 -14 -12 -11 -10 -11 -13 -13 -11 -11 -9 -9 -9 -10 -10 -9 -10
-27 -27 -27 -27 -26 -26 -26 -26 -26 -26 -26 -26 -25 -25 -26 -25 -26 -25 -25 -24 -23 -22 -21 -21 -20 -19 -17 -17 -16 -16 -15 -13 -14 -13 -12 -12 -11 -12 -12 -11 -10 -10 -9 -10 -10 -10 -10
-27 -28 -27 -27 -27 -27 -26 -26 -26 -26 -26 -26 -26 -26 -26 -25 -26 -25 -25 -24 -23 -22 -22 -21 -20 -20 -19 -18 -17 -17 -17 -16 -15 -14 -13 -12 -12 -11 -13 -12 -11 -11 -9 -10 -11 -10 -11
-27 -27 -27 -27 -27 -26 -26 -26 -26 -27 -27 -26 -26 -26 -26 -25 -26 -25 -25 -24 -23 -22 -22 -21 -21 -20 -19 -18 -18 -17 -17 -16 -16 -15 -13 -12 -12 -12 -13 -12 -11 -10 -10 -10 -11 -11 -10
-26 -26 -26 -26 -27 -27 -27 -27 -27 -27 -27 -27 -27 -27 -26 -25 -26 -25 -24 -24 -23 -22 -22 -21 -20 -20 -19 -19 -17 -17 -16 -16 -15 -14 -14 -13 -12 -12 -13 -12 -12 -12 -11 -10 -11 -11 -11

GFSGBSN_500_temp_012.txt.gz
Temp
-4 -4 -4 -4 -4 -4 -4 -4 -4 -4 -4 -3 -3 -3 -3 -3 -3 -3 -3 -3 -3 -3 -3 -2 -2 -3 -2 -2 -2 -3 -2 -3 -3 -3 -4 -5 -5 -5 -5 -6 -8 -8 -8 -7 -8 -8 -7
-4 -4 -4 -4 -4 -4 -4 -4 -4 -4 -4 -4 -4 -4 -3 -3 -3 -3 -4 -4 -3 -3 -3 -3 -3 -3 -3 -3 -2 -2 -2 -3 -3 -3 -4 -5 -5 -5 -5 -5 -7 -8 -8 -8 -7 -8 -8
-4 -4 -4 -4 -4 -4 -4 -4 -4 -4 -4 -4 -4 -3 -3 -4 -4 -4 -4 -4 -3 -3 -3 -3 -3 -3 -3 -3 -3 -3 -2 -2 -3 -3 -3 -4 -5 -5 -5 -5 -5 -8 -8 -7 -7 -7 -7
-4 -4 -5 -5 -5 -4 -4 -4 -4 -4 -4 -4 -4 -4 -3 -3 -4 -4 -4 -4 -4 -3 -3 -3 -3 -2 -3 -3 -3 -3 -3 -2 -3 -3 -3 -4 -5 -5 -5 -6 -5 -7 -8 -8 -7 -7 -7
-5 -5 -4 -4 -5 -5 -5 -5 -4 -4 -4 -4 -4 -3 -3 -3 -3 -3 -3 -4 -3 -3 -3 -3 -3 -2 -3 -3 -3 -3 -3 -3 -3 -3 -3 -3 -4 -5 -5 -5 -6 -6 -8 -7 -7 -7 -7
-5 -5 -5 -5 -4 -4 -4 -4 -4 -4 -4 -4 -3 -3 -3 -3 -3 -3 -3 -3 -3 -3 -3 -3 -3 -3 -2 -3 -3 -3 -3 -3 -3 -3 -3 -3 -3 -4 -4 -5 -5 -5 -7 -7 -6 -6 -7
-5 -5 -5 -5 -5 -5 -5 -4 -4 -4 -4 -4 -3 -3 -3 -3 -3 -4 -3 -3 -3 -3 -3 -3 -3 -3 -3 -3 -3 -3 -3 -3 -3 -3 -3 -3 -3 -2 -3 -5 -5 -6 -7 -6 -7 -7 -7
-5 -5 -5 -4 -4 -5 -5 -5 -4 -4 -4 -4 -4 -4 -4 -3 -4 -4 -3 -3 -4 -3 -3 -3 -3 -3 -3 -3 -3 -3 -3 -3 -3 -3 -3 -3 -3 -3 -4 -5 -5 -5 -7 -6 -6 -7 -7
-5 -5 -5 -5 -4 -4 -4 -5 -5 -5 -4 -4 -4 -4 -4 -3 -3 -3 -3 -4 -3 -3 -2 -3 -3 -3 -3 -2 -3 -3 -3 -3 -3 -3 -3 -3 -3 -4 -4 -5 -5 -6 -7 -7 -6 -6 -7
-5 -5 -5 -5 -5 -5 -5 -5 -5 -5 -5 -5 -4 -4 -4 -4 -4 -3 -3 -4 -3 -3 -2 -2 -3 -2 -3 -3 -2 -3 -3 -3 -3 -3 -3 -3 -4 -4 -4 -5 -5 -5 -6 -7 -6 -6 -6
-5 -5 -5 -6 -6 -5 -5 -5 -5 -5 -4 -4 -4 -4 -4 -4 -4 -4 -3 -4 -3 -3 -3 -3 -2 -2 -3 -3 -3 -3 -3 -3 -3 -4 -3 -3 -3 -3 -3 -4 -5 -4 -6 -7 -7 -7 -6
-5 -5 -5 -5 -5 -5 -5 -4 -4 -4 -4 -5 -5 -4 -4 -4 -5 -4 -4 -4 -4 -4 -2 -3 -2 -2 -3 -4 -3 -3 -4 -3 -4 -3 -3 -4 -4 -4 -4 -4 -5 -6 -8 -7 -7 -7 -7
-5 -5 -5 -5 -5 -5 -5 -5 -5 -5 -5 -4 -5 -4 -4 -4 -4 -4 -5 -4 -4 -3 -3 -3 -4 -3 -3 -4 -4 -4 -4 -4 -4 -3 -3 -4 -4 -4 -4 -5 -6 -6 -8 -8 -7 -6 -6
-6 -5 -5 -5 -5 -5 -5 -5 -5 -5 -4 -4 -5 -4 -5 -5 -6 -5 -5 -5 -4 -3 -4 -5 -5 -4 -3 -4 -4 -4 -4 -4 -4 -4 -4 -3 -4 -4 -4 -4 -5 -6 -8 -7 -7 -7 -6
-6 -5 -5 -5 -5 -5 -5 -5 -5 -4 -5 -4 -5 -5 -6 -6 -6 -6 -6 -5 -3 -4 -5 -6 -7 -7 -6 -4 -6 -5 -4 -4 -5 -5 -4 -4 -4 -5 -5 -5 -5 -5 -7 -5 -7 -6 -6
-6 -5 -5 -5 -5 -5 -4 -4 -4 -4 -4 -4 -4 -4 -5 -5 -6 -7 -6 -4 -5 -5 -6 -7 -7 -8 -8 -9 -8 -9 -5 -4 -4 -5 -5 -5 -6 -6 -6 -6 -4 -4 -5 -7 -7 -7 -6
-6 -6 -5 -5 -5 -5 -5 -5 -5 -5 -5 -5 -5 -5 -8 -6 -7 -7 -6 -6 -6 -6 -7 -7 -6 -6 -7 -10 -9 -9 -9 -7 -7 -6 -5 -6 -6 -6 -8 -4 -5 -6 -5 -6 -7 -7 -7
-6 -6 -7 -7 -7 -7 -8 -7 -7 -7 -7 -7 -6 -6 -10 -9 -10 -10 -8 -8 -8 -7 -8 -8 -9 -8 -7 -9 -10 -10 -9 -9 -9 -9 -9 -7 -7 -6 -7 -8 -7 -6 -4 -5 -7 -7 -7
-8 -9 -9 -9 -9 -8 -8 -8 -9 -8 -9 -9 -10 -9 -14 -15 -10 -12 -13 -12 -10 -9 -8 -10 -11 -9 -10 -10 -9 -10 -10 -10 -9 -9 -9 -9 -8 -8 -7 -8 -8 -8 -6 -7 -7 -7 -7
-10 -10 -9 -9 -9 -10 -11 -13 -14 -14 -15 -16 -16 -16 -18 -19 -17 -17 -17 -15 -13 -12 -10 -10 -12 -12 -10 -10 -11 -9 -11 -10 -10 -10 -10 -10 -9 -8 -7 -6 -8 -8 -7 -6 -8 -8 -6
-11 -10 -10 -12 -13 -14 -16 -18 -20 -20 -21 -22 -22 -21 -22 -21 -20 -21 -21 -19 -16 -14 -12 -15 -13 -12 -12 -12 -11 -11 -11 -11 -11 -11 -11 -11 -9 -9 -8 -8 -9 -8 -8 -9 -9 -6 -8
-12 -14 -14 -15 -17 -19 -21 -23 -25 -24 -24 -24 -23 -23 -23 -23 -23 -23 -22 -21 -21 -18 -19 -17 -15 -14 -13 -12 -14 -12 -11 -12 -12 -12 -11 -11 -10 -9 -9 -9 -9 -9 -9 -8 -8 -7 -5
-17 -19 -20 -22 -24 -25 -26 -26 -26 -26 -25 -25 -24 -24 -24 -24 -24 -24 -23 -23 -22 -22 -21 -20 -17 -15 -16 -15 -13 -11 -12 -11 -11 -12 -12 -12 -11 -10 -9 -8 -10 -9 -8 -9 -8 -8 -8
-22 -22 -24 -27 -27 -27 -27 -26 -26 -26 -26 -25 -25 -25 -25 -25 -25 -25 -25 -25 -24 -23 -21 -21 -20 -18 -17 -16 -15 -14 -13 -12 -12 -12 -13 -12 -11 -10 -9 -10 -10 -6 -9 -9 -9 -9 -9
-24 -25 -26 -27 -27 -27 -27 -26 -26 -26 -26 -26 -26 -26 -25 -25 -25 -25 -25 -25 -24 -24 -23 -22 -21 -19 -17 -17 -16 -15 -14 -15 -13 -13 -13 -13 -12 -11 -11 -10 -9 -10 -9 -9 -9 -9 -9
-24 -25 -25 -26 -26 -27 -26 -27 -26 -26 -26 -26 -26 -26 -26 -25 -26 -25 -25 -25 -25 -24 -24 -23 -22 -20 -18 -17 -17 -16 -16 -16 -15 -14 -13 -13 -12 -12 -12 -10 -10 -9 -9 -9 -9 -8 -9
-24 -25 -25 -25 -26 -26 -26 -26 -26 -26 -26 -26 -26 -26 -26 -25 -26 -25 -25 -25 -25 -24 -23 -22 -22 -21 -19 -18 -17 -17 -16 -16 -16 -14 -14 -13 -13 -12 -12 -11 -10 -10 -9 -10 -10 -8 -9
-24 -25 -25 -25 -26 -26 -26 -26 -26 -26 -26 -26 -26 -26 -26 -25 -26 -25 -25 -25 -24 -24 -22 -21 -21 -20 -21 -18 -17 -17 -16 -16 -15 -14 -14 -13 -13 -12 -12 -12 -10 -10 -9 -9 -9 -9 -9
-24 -24 -25 -25 -25 -26 -26 -26 -26 -27 -27 -27 -26 -26 -26 -25 -26 -25 -25 -24 -24 -23 -22 -21 -22 -21 -20 -18 -18 -17 -16 -15 -15 -14 -14 -14 -13 -12 -11 -11 -10 -10 -10 -10 -10 -10 -9

GFSGBSN_500_temp_015.txt.gz
Temp
-4 -4 -4 -4 -4 -4 -4 -4 -4 -4 -4 -4 -4 -4 -3 -3 -3 -3 -3 -3 -3 -3 -3 -3 -3 -2 -2 -2 -2 -2 -2 -2 -2 -2 -3 -4 -4 -5 -5 -6 -5 -6 -8 -8 -7 -8 -8
-4 -4 -4 -4 -4 -4 -4 -4 -4 -4 -4 -4 -4 -4 -4 -3 -3 -3 -3 -3 -3 -3 -3 -3 -3 -3 -3 -3 -2 -2 -2 -2 -2 -2 -3 -3 -5 -5 -5 -6 -5 -7 -8 -8 -8 -8 -8
-4 -4 -4 -4 -4 -4 -4 -4 -4 -4 -4 -4 -4 -4 -3 -3 -3 -3 -3 -3 -3 -3 -3 -2 -2 -3 -3 -3 -3 -2 -2 -2 -2 -2 -3 -3 -5 -5 -5 -6 -5 -6 -8 -8 -8 -8 -8
-4 -4 -4 -4 -4 -4 -4 -4 -4 -4 -4 -4 -4 -3 -3 -3 -3 -3 -3 -3 -3 -3 -3 -3 -2 -3 -3 -3 -3 -3 -2 -3 -3 -3 -3 -3 -4 -4 -5 -5 -5 -5 -6 -8 -8 -7 -8
-5 -5 -4 -4 -4 -4 -4 -4 -4 -4 -4 -4 -3 -3 -3 -3 -3 -3 -3 -3 -3 -3 -3 -3 -2 -3 -3 -3 -3 -3 -3 -2 -3 -3 -3 -3 -3 -3 -5 -5 -5 -5 -5 -6 -7 -8 -8
-5 -5 -5 -5 -4 -4 -4 -4 -4 -4 -4 -4 -4 -3 -3 -3 -3 -3 -3 -3 -3 -3 -2 -2 -2 -3 -3 -3 -3 -3 -3 -3 -3 -3 -3 -3 -3 -3 -3 -4 -4 -5 -5 -5 -7 -7 -7
-5 -5 -5 -5 -4 -4 -4 -4 -4 -5 -4 -4 -4 -4 -4 -3 -4 -3 -3 -3 -2 -2 -3 -2 -2 -3 -2 -3 -3 -3 -3 -3 -3 -3 -3 -3 -3 -2 -3 -3 -5 -6 -6 -6 -7 -7 -8
-5 -5 -5 -5 -5 -5 -5 -5 -4 -4 -4 -4 -4 -4 -4 -4 -4 -4 -3 -3 -3 -2 -2 -2 -2 -2 -2 -2 -2 -3 -2 -3 -3 -3 -3 -3 -2 -3 -4 -4 -5 -6 -6 -5 -7 -8 -7
-5 -5 -5 -5 -5 -5 -5 -5 -5 -5 -4 -4 -4 -4 -4 -4 -4 -4 -4 -4 -3 -2 -1 -3 -3 -2 -4 -1 -2 -3 -3 -3 -3 -3 -3 -3 -3 -4 -4 -4 -4 -5 -6 -5 -7 -7 -6
-5 -5 -5 -5 -5 -5 -5 -5 -5 -5 -5 -5 -5 -4 -5 -5 -4 -4 -3 -4 -3 -3 -2 -2 -3 -2 -2 -2 -2 -3 -2 -3 -3 -3 -3 -3 -3 -3 -3 -4 -4 -4 -6 -6 -7 -8 -8
-5 -5 -5 -5 -5 -5 -5 -5 -5 -5 -5 -5 -5 -5 -5 -4 -5 -4 -4 -4 -4 -3 -2 -2 -2 -2 -3 -2 -4 -3 -3 -2 -3 -3 -3 -3 -3 -3 -3 -3 -5 -3 -6 -6 -6 -7 -8
-6 -5 -6 -5 -5 -5 -5 -5 -5 -5 -5 -5 -5 -5 -5 -4 -5 -4 -4 -4 -4 -4 -2 -3 -3 -2 -3 -3 -3 -4 -3 -3 -3 -3 -2 -3 -3 -3 -3 -3 -5 -5 -5 -6 -6 -7 -8
-6 -6 -6 -5 -5 -5 -5 -5 -5 -5 -5 -5 -5 -5 -5 -5 -5 -5 -5 -5 -4 -3 -3 -3 -4 -4 -3 -3 -4 -4 -3 -3 -3 -3 -2 -3 -3 -3 -3 -3 -4 -6 -5 -6 -6 -6 -6
-6 -6 -6 -6 -6 -6 -5 -5 -5 -5 -5 -5 -5 -5 -5 -5 -6 -5 -5 -5 -4 -3 -4 -5 -6 -4 -3 -4 -4 -4 -3 -3 -3 -3 -3 -3 -3 -3 -3 -3 -3 -4 -6 -4 -4 -5 -5
-7 -7 -7 -6 -6 -6 -5 -5 -5 -5 -5 -5 -5 -5 -5 -5 -5 -5 -5 -5 -4 -4 -5 -5 -6 -5 -5 -4 -4 -5 -4 -3 -4 -4 -4 -4 -3 -4 -4 -4 -4 -5 -4 -5 -6 -6 -6
-7 -7 -6 -6 -6 -5 -5 -5 -5 -5 -5 -5 -4 -5 -6 -5 -5 -5 -4 -4 -4 -5 -5 -6 -5 -6 -5 -6 -7 -6 -6 -5 -3 -5 -5 -5 -4 -4 -4 -5 -5 -4 -5 -6 -6 -5 -6
-7 -7 -6 -6 -6 -6 -6 -5 -5 -5 -5 -5 -4 -4 -8 -7 -5 -5 -4 -4 -5 -5 -7 -7 -7 -6 -6 -6 -7 -6 -4 -6 -6 -6 -6 -6 -6 -5 -5 -4 -5 -4 -4 -6 -7 -7 -6
-8 -7 -7 -7 -7 -6 -6 -6 -5 -5 -5 -5 -5 -5 -9 -9 -9 -7 -6 -7 -7 -7 -7 -8 -7 -7 -8 -8 -8 -7 -5 -5 -9 -9 -9 -7 -7 -6 -4 -4 -5 -5 -6 -6 -6 -5 -7
-8 -9 -9 -8 -7 -7 -6 -6 -6 -6 -6 -6 -7 -7 -12 -13 -10 -12 -12 -11 -11 -10 -9 -9 -9 -11 -10 -9 -9 -8 -7 -7 -9 -9 -9 -9 -7 -7 -6 -6 -6 -6 -6 -6 -6 -6 -5
-11 -10 -10 -10 -10 -10 -10 -10 -11 -11 -11 -11 -12 -12 -17 -19 -18 -18 -18 -14 -13 -13 -11 -11 -10 -11 -9 -9 -10 -9 -8 -8 -9 -9 -9 -9 -9 -6 -5 -5 -7 -6 -7 -7 -7 -6 -4
-12 -12 -14 -15 -16 -16 -17 -17 -17 -19 -20 -21 -22 -21 -22 -21 -23 -22 -21 -19 -19 -16 -16 -14 -13 -11 -11 -10 -11 -9 -9 -8 -9 -9 -9 -9 -10 -9 -7 -7 -8 -7 -7 -8 -7 -5 -6
-15 -18 -19 -20 -21 -22 -21 -22 -25 -26 -26 -27 -26 -25 -25 -24 -24 -24 -23 -23 -23 -22 -20 -18 -19 -16 -14 -13 -12 -12 -10 -9 -9 -9 -9 -10 -10 -10 -9 -10 -9 -8 -8 -8 -9 -8 -7
-20 -21 -22 -23 -23 -24 -24 -26 -26 -26 -26 -26 -26 -26 -25 -25 -24 -24 -24 -24 -24 -24 -22 -21 -21 -20 -20 -17 -14 -12 -11 -10 -9 -10 -10 -10 -10 -10 -9 -10 -10 -9 -6 -8 -9 -8 -8
-22 -23 -24 -24 -24 -25 -25 -26 -26 -26 -26 -26 -26 -26 -26 -25 -25 -25 -24 -24 -25 -24 -23 -22 -22 -21 -20 -19 -16 -14 -13 -11 -10 -10 -10 -10 -11 -11 -10 -10 -10 -5 -7 -8 -9 -9 -8
-23 -24 -24 -24 -24 -25 -25 -25 -26 -26 -26 -26 -26 -26 -26 -26 -26 -26 -25 -25 -24 -24 -24 -24 -23 -22 -21 -21 -18 -16 -14 -13 -11 -10 -11 -11 -11 -11 -11 -11 -9 -8 -7 -8 -9 -8 -9
-23 -23 -24 -24 -24 -25 -25 -26 -26 -26 -26 -26 -26 -26 -26 -25 -26 -25 -25 -25 -24 -25 -25 -25 -24 -22 -22 -22 -19 -18 -16 -15 -13 -11 -11 -12 -12 -12 -12 -12 -9 -7 -9 -9 -9 -9 -9
-23 -23 -24 -24 -25 -25 -25 -26 -26 -26 -26 -26 -26 -26 -26 -25 -26 -25 -25 -25 -25 -25 -24 -24 -24 -23 -22 -21 -20 -18 -17 -16 -14 -13 -13 -13 -14 -13 -13 -11 -10 -9 -10 -10 -10 -9 -9
-23 -24 -24 -24 -25 -25 -25 -26 -26 -26 -26 -26 -26 -26 -26 -25 -26 -25 -25 -25 -25 -25 -24 -24 -23 -23 -21 -21 -21 -19 -18 -17 -16 -14 -14 -15 -14 -13 -13 -13 -12 -11 -10 -10 -9 -9 -9
-24 -24 -24 -24 -24 -25 -25 -25 -26 -26 -26 -26 -26 -26 -26 -25 -25 -25 -25 -25 -24 -24 -24 -24 -23 -22 -22 -21 -21 -18 -17 -16 -16 -14 -14 -14 -13 -13 -12 -13 -13 -12 -11 -10 -10 -10 -8

GFSGBSN_500_temp_021.txt.gz
Temp
-4 -4 -4 -4 -4 -4 -4 -4 -4 -5 -5 -4 -4 -4 -4 -4 -4 -4 -4 -3 -3 -3 -3 -3 -3 -3 -3 -3 -3 -2 -3 -3 -3 -3 -4 -4 -4 -6 -5 -7 -7 -7 -6 -5 -5 -7 -4
-4 -4 -4 -4 -4 -4 -4 -4 -4 -4 -5 -5 -5 -4 -4 -4 -4 -4 -4 -3 -3 -3 -4 -3 -3 -3 -3 -3 -3 -3 -3 -3 -3 -3 -3 -3 -4 -5 -6 -6 -7 -6 -5 -4 -4 -4 -3
-5 -5 -5 -4 -4 -4 -5 -5 -5 -5 -5 -4 -4 -4 -4 -4 -4 -4 -3 -3 -3 -3 -3 -3 -3 -3 -3 -3 -3 -3 -3 -3 -3 -3 -3 -4 -4 -4 -6 -6 -7 -5 -6 -5 -5 -6 -5
-5 -5 -5 -5 -5 -5 -5 -5 -5 -5 -5 -5 -5 -4 -4 -4 -4 -4 -3 -3 -3 -3 -3 -3 -3 -4 -3 -3 -3 -3 -3 -3 -3 -3 -3 -4 -4 -5 -6 -6 -7 -6 -6 -6 -5 -5 -5
-5 -5 -5 -5 -5 -5 -5 -5 -5 -5 -5 -5 -5 -5 -4 -4 -4 -3 -3 -3 -3 -3 -3 -3 -4 -4 -3 -4 -3 -3 -3 -3 -3 -3 -3 -3 -3 -4 -5 -5 -6 -6 -6 -6 -6 -6 -6
-5 -5 -5 -5 -5 -5 -5 -5 -5 -5 -5 -5 -5 -5 -5 -4 -4 -4 -3 -3 -3 -3 -3 -3 -3 -3 -4 -3 -4 -3 -3 -3 -4 -3 -3 -3 -3 -3 -3 -3 -3 -5 -6 -7 -7 -8 -7
-5 -5 -5 -5 -5 -5 -5 -5 -5 -5 -5 -5 -5 -5 -4 -4 -4 -4 -3 -3 -3 -3 -3 -3 -3 -3 -3 -3 -3 -3 -4 -3 -3 -3 -3 -3 -3 -3 -3 -4 -5 -6 -6 -7 -7 -8 -7
-5 -5 -5 -5 -5 -5 -5 -5 -5 -5 -5 -5 -5 -5 -5 -4 -4 -4 -3 -3 -3 -3 -3 -3 -3 -3 -3 -3 -3 -3 -3 -3 -3 -3 -3 -3 -3 -4 -4 -4 -5 -5 -6 -7 -7 -8 -7
-6 -5 -5 -5 -5 -5 -5 -5 -5 -4 -4 -4 -4 -4 -5 -4 -4 -4 -4 -3 -3 -3 -3 -4 -3 -3 -4 -1 -3 -3 -3 -3 -3 -3 -3 -3 -4 -4 -4 -4 -5 -5 -5 -7 -7 -8 -8
-6 -6 -6 -6 -5 -5 -5 -5 -5 -5 -5 -5 -5 -4 -5 -5 -5 -4 -5 -4 -4 -3 -3 -3 -4 -3 -3 -3 -2 -4 -3 -4 -3 -3 -4 -3 -3 -3 -3 -4 -4 -4 -5 -7 -7 -8 -8
-7 -7 -6 -7 -6 -6 -6 -6 -6 -5 -5 -5 -5 -5 -5 -5 -5 -5 -5 -5 -4 -4 -3 -3 -3 -3 -4 -3 -3 -4 -3 -3 -3 -4 -3 -3 -4 -3 -3 -3 -4 -4 -6 -7 -8 -8 -8
-9 -9 -9 -8 -8 -8 -7 -7 -7 -7 -6 -6 -6 -6 -5 -5 -6 -5 -5 -5 -5 -5 -3 -4 -3 -3 -4 -3 -3 -3 -3 -3 -3 -3 -3 -3 -4 -3 -3 -3 -4 -5 -6 -7 -7 -8 -8
-9 -9 -9 -9 -8 -8 -8 -8 -8 -8 -8 -7 -7 -7 -7 -6 -6 -6 -6 -5 -5 -5 -4 -4 -4 -4 -4 -4 -4 -3 -3 -3 -3 -3 -3 -3 -3 -3 -3 -3 -3 -4 -5 -6 -7 -7 -3
-9 -9 -8 -8 -7 -7 -7 -7 -7 -7 -7 -7 -7 -7 -7 -7 -7 -7 -7 -6 -5 -4 -5 -5 -5 -5 -5 -4 -4 -4 -4 -3 -3 -3 -3 -3 -3 -3 -3 -3 -3 -3 -4 -4 -4 -5 -4
-8 -8 -8 -7 -7 -7 -7 -7 -6 -6 -6 -6 -6 -7 -7 -6 -7 -7 -7 -7 -5 -5 -5 -5 -6 -6 -5 -5 -5 -4 -4 -4 -4 -4 -4 -4 -3 -4 -4 -4 -4 -4 -3 -4 -5 -5 -5
-9 -9 -9 -9 -8 -8 -8 -8 -7 -7 -7 -6 -6 -6 -7 -6 -7 -6 -7 -6 -6 -6 -6 -6 -6 -6 -5 -5 -5 -5 -5 -4 -4 -4 -4 -4 -4 -4 -5 -5 -4 -4 -4 -4 -4 -4 -4
-10 -10 -10 -10 -10 -10 -10 -9 -8 -9 -9 -8 -7 -7 -6 -6 -7 -7 -7 -7 -7 -7 -6 -6 -6 -6 -6 -6 -6 -6 -5 -5 -5 -5 -4 -4 -4 -4 -5 -5 -4 -4 -3 -3 -4 -4 -3
-12 -12 -12 -12 -12 -13 -13 -13 -12 -12 -12 -11 -10 -10 -8 -8 -8 -8 -7 -6 -6 -7 -7 -6 -6 -6 -6 -6 -7 -6 -6 -6 -4 -5 -5 -4 -3 -3 -4 -5 -5 -5 -5 -5 -4 -2 -2
-13 -14 -15 -16 -17 -18 -19 -19 -19 -19 -19 -19 -18 -17 -15 -13 -13 -11 -10 -9 -8 -7 -8 -7 -7 -6 -6 -6 -7 -8 -7 -7 -6 -5 -5 -5 -4 -4 -3 -5 -5 -4 -4 -5 -3 -4 -3
-16 -17 -19 -20 -20 -21 -21 -22 -22 -22 -22 -22 -22 -22 -22 -20 -19 -17 -15 -14 -12 -10 -10 -10 -9 -7 -7 -7 -8 -8 -8 -8 -7 -6 -5 -6 -5 -4 -3 -5 -5 -4 -4 -4 -4 -3 -2
-19 -20 -21 -21 -22 -22 -23 -23 -23 -23 -23 -24 -24 -24 -25 -25 -24 -23 -21 -20 -18 -16 -16 -14 -14 -11 -10 -10 -10 -9 -8 -9 -9 -8 -7 -6 -6 -5 -4 -4 -5 -4 -4 -4 -3 -3 -3
-20 -21 -22 -22 -23 -23 -24 -24 -24 -24 -25 -25 -25 -25 -26 -26 -26 -27 -25 -25 -25 -23 -21 -22 -20 -16 -15 -13 -13 -12 -10 -10 -11 -10 -9 -7 -7 -6 -5 -5 -5 -5 -3 -2 -2 -3 -4
-20 -21 -22 -23 -23 -24 -24 -24 -25 -25 -25 -26 -26 -26 -26 -26 -27 -27 -27 -27 -26 -25 -25 -24 -23 -22 -20 -17 -16 -15 -13 -12 -11 -12 -11 -10 -8 -8 -6 -6 -6 -6 -3 -3 -3 -3 -3
-21 -22 -22 -22 -23 -23 -24 -24 -25 -25 -25 -26 -26 -26 -26 -26 -26 -27 -26 -26 -26 -26 -25 -25 -25 -25 -24 -22 -20 -18 -16 -14 -12 -12 -12 -11 -10 -9 -7 -9 -8 -3 -5 -5 -4 -3 -3
-21 -21 -22 -22 -23 -23 -24 -24 -24 -25 -25 -26 -26 -26 -26 -26 -26 -26 -26 -26 -26 -26 -25 -25 -25 -25 -24 -24 -23 -21 -19 -17 -15 -13 -12 -12 -12 -11 -10 -10 -7 -5 -5 -7 -7 -5 -4
-21 -22 -22 -22 -23 -23 -23 -24 -24 -25 -25 -26 -26 -27 -26 -26 -26 -26 -26 -26 -26 -26 -25 -25 -25 -25 -24 -23 -23 -23 -21 -20 -18 -15 -13 -13 -13 -13 -12 -11 -9 -7 -8 -7 -8 -7 -6
-20 -20 -21 -22 -22 -23 -23 -24 -24 -24 -25 -25 -26 -26 -26 -26 -27 -26 -25 -26 -26 -25 -25 -25 -25 -25 -24 -24 -24 -23 -22 -21 -19 -18 -15 -14 -13 -13 -13 -13 -10 -9 -10 -10 -9 -5 -7
-20 -20 -21 -21 -21 -22 -22 -23 -23 -24 -24 -25 -25 -26 -26 -26 -26 -26 -25 -25 -25 -25 -25 -25 -25 -24 -24 -24 -24 -23 -22 -22 -21 -19 -18 -16 -18 -14 -13 -14 -12 -12 -11 -11 -10 -8 -7
-19 -20 -20 -21 -21 -21 -22 -22 -23 -23 -24 -24 -25 -25 -25 -26 -25 -25 -25 -25 -25 -24 -24 -24 -24 -24 -24 -24 -23 -22 -22 -22 -22 -21 -20 -18 -17 -15 -13 -13 -13 -12 -11 -11 -11 -10 -8

GFSGBSN_500_temp_027.txt.gz
Temp
-5 -5 -5 -5 -5 -5 -5 -5 -5 -5 -5 -5 -5 -5 -5 -5 -5 -5 -4 -4 -4 -4 -4 -4 -4 -4 -4 -3 -3 -3 -3 -3 -3 -3 -4 -4 -5 -5 -6 -6 -7 -7 -7 -6 -6 -6 -6
-5 -5 -5 -5 -5 -5 -5 -5 -5 -5 -5 -5 -5 -5 -5 -5 -5 -4 -4 -4 -4 -4 -4 -4 -4 -4 -4 -3 -4 -4 -4 -3 -3 -3 -3 -4 -4 -6 -6 -6 -6 -7 -7 -6 -6 -6 -6
-5 -5 -5 -5 -5 -5 -5 -5 -5 -5 -5 -5 -5 -5 -5 -5 -5 -5 -4 -4 -4 -4 -4 -4 -4 -4 -4 -3 -4 -4 -3 -3 -4 -4 -4 -4 -5 -5 -5 -5 -6 -6 -6 -6 -5 -6 -6
-5 -5 -5 -5 -5 -5 -5 -5 -5 -5 -5 -5 -5 -5 -5 -5 -5 -4 -5 -4 -4 -4 -4 -4 -4 -4 -5 -3 -4 -4 -3 -4 -4 -4 -4 -4 -4 -4 -5 -4 -5 -6 -5 -6 -6 -6 -6
-5 -5 -5 -5 -5 -5 -5 -5 -5 -5 -5 -5 -5 -5 -5 -5 -5 -5 -5 -5 -4 -4 -4 -4 -4 -4 -5 -4 -3 -4 -3 -4 -4 -4 -3 -3 -4 -3 -4 -4 -5 -5 -5 -6 -6 -6 -6
-6 -6 -6 -5 -5 -5 -5 -5 -5 -5 -5 -5 -5 -5 -4 -5 -4 -5 -5 -5 -5 -5 -4 -4 -4 -4 -4 -4 -4 -4 -4 -3 -4 -3 -3 -3 -4 -4 -4 -3 -3 -4 -5 -6 -7 -6 -6
-6 -6 -6 -6 -6 -6 -6 -6 -6 -5 -5 -5 -4 -5 -5 -4 -4 -4 -4 -4 -5 -5 -5 -4 -4 -4 -4 -5 -4 -4 -4 -3 -3 -4 -4 -4 -3 -4 -5 -5 -5 -5 -6 -7 -8 -7 -6
-7 -7 -7 -7 -7 -7 -7 -6 -6 -6 -6 -6 -5 -5 -5 -5 -4 -4 -4 -5 -4 -4 -5 -5 -5 -5 -4 -4 -4 -4 -4 -4 -4 -4 -4 -3 -4 -5 -5 -5 -5 -5 -6 -6 -7 -7 -6
-8 -8 -8 -8 -8 -8 -7 -7 -7 -7 -7 -7 -6 -6 -6 -5 -5 -4 -4 -4 -4 -4 -4 -5 -4 -5 -5 -4 -4 -5 -4 -4 -4 -4 -4 -4 -5 -4 -4 -5 -4 -4 -5 -6 -7 -7 -6
-8 -8 -8 -8 -8 -8 -8 -8 -8 -8 -8 -8 -7 -6 -6 -7 -6 -5 -5 -4 -4 -4 -4 -4 -5 -4 -5 -5 -4 -5 -4 -4 -3 -4 -4 -3 -4 -4 -4 -4 -4 -4 -5 -6 -7 -7 -7
-8 -8 -8 -8 -8 -8 -8 -7 -7 -7 -7 -7 -7 -7 -7 -7 -8 -7 -6 -5 -5 -4 -5 -4 -4 -4 -4 -5 -5 -5 -5 -4 -4 -4 -4 -3 -4 -4 -4 -5 -5 -5 -6 -6 -7 -8 -8
-8 -8 -8 -8 -8 -7 -7 -7 -7 -7 -7 -8 -7 -7 -8 -8 -8 -8 -8 -7 -6 -6 -4 -5 -4 -4 -4 -4 -5 -5 -4 -4 -5 -4 -4 -4 -4 -3 -4 -4 -4 -5 -5 -6 -7 -7 -5
-8 -8 -8 -7 -7 -7 -8 -9 -9 -9 -8 -8 -8 -7 -7 -7 -8 -8 -8 -8 -8 -7 -6 -6 -5 -5 -5 -5 -5 -5 -4 -4 -4 -4 -3 -4 -3 -3 -3 -4 -4 -4 -4 -5 -6 -5 -2
-8 -8 -9 -9 -9 -10 -10 -10 -10 -9 -9 -9 -9 -8 -8 -7 -8 -8 -9 -8 -8 -7 -7 -6 -6 -6 -6 -6 -5 -5 -5 -5 -5 -5 -4 -4 -4 -3 -3 -3 -4 -4 -4 -4 -3 -3 -3
-10 -10 -11 -11 -11 -12 -12 -13 -13 -13 -12 -12 -12 -11 -9 -9 -8 -8 -9 -9 -9 -8 -7 -7 -7 -8 -8 -7 -6 -6 -6 -6 -6 -5 -5 -4 -4 -4 -4 -4 -5 -4 -3 -5 -5 -4 -4
-12 -12 -13 -13 -15 -16 -17 -18 -19 -20 -20 -20 -19 -18 -15 -13 -11 -10 -10 -10 -10 -9 -8 -8 -8 -8 -8 -8 -8 -7 -7 -6 -6 -5 -5 -5 -4 -4 -5 -5 -5 -4 -5 -5 -5 -4 -4
-13 -14 -15 -16 -18 -18 -19 -19 -20 -20 -21 -21 -22 -23 -22 -21 -19 -16 -14 -14 -13 -10 -9 -9 -9 -9 -8 -8 -9 -8 -7 -7 -6 -6 -5 -5 -5 -5 -5 -4 -4 -4 -3 -3 -3 -4 -3
-15 -15 -17 -18 -18 -18 -19 -19 -20 -20 -21 -22 -23 -23 -23 -23 -23 -23 -21 -19 -18 -15 -11 -10 -9 -9 -9 -9 -9 -9 -8 -7 -7 -7 -6 -6 -6 -5 -5 -5 -5 -5 -5 -5 -5 -4 -3
-16 -18 -18 -18 -18 -19 -19 -19 -20 -21 -21 -22 -23 -24 -24 -24 -25 -25 -24 -23 -21 -19 -16 -13 -11 -10 -9 -10 -10 -10 -10 -8 -8 -8 -7 -7 -6 -6 -5 -5 -5 -4 -5 -4 -4 -4 -3
-18 -18 -18 -18 -18 -18 -19 -20 -20 -21 -22 -22 -24 -24 -24 -25 -25 -26 -26 -25 -24 -22 -19 -17 -15 -13 -12 -11 -11 -11 -11 -10 -9 -9 -8 -7 -7 -7 -6 -6 -6 -5 -5 -4 -4 -3 -2
-18 -18 -18 -18 -19 -19 -19 -19 -20 -21 -22 -23 -24 -24 -25 -26 -26 -26 -26 -26 -26 -25 -22 -20 -19 -18 -16 -14 -12 -12 -12 -11 -11 -9 -9 -9 -8 -7 -7 -7 -6 -5 -5 -5 -4 -4 -3
-19 -18 -18 -18 -19 -20 -19 -19 -20 -21 -22 -23 -24 -24 -25 -26 -26 -27 -27 -26 -26 -26 -26 -23 -23 -22 -20 -18 -16 -14 -13 -13 -12 -11 -10 -9 -9 -8 -7 -7 -6 -6 -5 -5 -5 -4 -3
-19 -18 -18 -18 -18 -20 -19 -19 -20 -21 -22 -23 -24 -24 -25 -26 -27 -27 -27 -26 -26 -26 -27 -26 -25 -24 -23 -22 -20 -16 -15 -14 -13 -12 -11 -10 -9 -9 -8 -7 -7 -6 -5 -5 -5 -5 -4
-19 -19 -18 -18 -18 -19 -19 -20 -20 -21 -22 -22 -23 -24 -25 -26 -26 -26 -26 -26 -26 -26 -26 -26 -26 -25 -24 -24 -23 -20 -17 -16 -14 -13 -12 -11 -10 -10 -9 -8 -7 -5 -5 -6 -6 -5 -5
-19 -19 -18 -18 -18 -19 -19 -19 -20 -20 -21 -22 -22 -23 -24 -25 -26 -26 -26 -26 -26 -26 -26 -26 -26 -26 -25 -25 -24 -23 -21 -18 -16 -14 -13 -12 -12 -11 -10 -8 -7 -6 -6 -6 -6 -5 -5
-18 -18 -18 -18 -18 -19 -19 -19 -20 -20 -20 -21 -22 -22 -23 -24 -24 -25 -26 -26 -26 -26 -26 -26 -26 -26 -26 -26 -25 -25 -23 -21 -18 -17 -15 -14 -12 -11 -10 -8 -7 -6 -7 -7 -6 -5 -5
-18 -18 -18 -18 -18 -18 -19 -19 -19 -20 -20 -21 -21 -22 -22 -23 -24 -24 -25 -25 -25 -25 -26 -26 -26 -25 -26 -26 -25 -25 -24 -23 -21 -19 -17 -16 -14 -11 -11 -9 -7 -7 -7 -7 -6 -5 -6
-18 -18 -18 -17 -17 -18 -19 -19 -19 -19 -20 -20 -20 -21 -22 -23 -23 -23 -24 -24 -25 -25 -25 -25 -25 -25 -25 -25 -25 -25 -25 -24 -22 -21 -19 -17 -16 -13 -11 -9 -7 -7 -8 -7 -7 -6 -6
-18 -18 -17 -17 -17 -18 -18 -19 -18 -19 -20 -20 -20 -21 -21 -22 -23 -23 -23 -23 -24 -24 -24 -24 -24 -25 -25 -24 -24 -24 -24 -23 -22 -20 -19 -17 -15 -15 -13 -9 -8 -8 -8 -8 -7 -7 -7

GFSGBSN_500_temp_033.txt.gz
Temp
-5 -5 -5 -5 -5 -5 -5 -5 -5 -5 -5 -5 -5 -4 -4 -4 -4 -5 -5 -5 -5 -5 -4 -4 -4 -4 -4 -3 -3 -4 -3 -3 -3 -3 -3 -4 -4 -5 -5 -6 -6 -5 -6 -5 -5 -6 -6
-5 -5 -5 -5 -5 -4 -4 -4 -4 -4 -4 -4 -4 -4 -4 -4 -4 -5 -5 -5 -5 -5 -5 -5 -4 -4 -4 -4 -4 -4 -3 -3 -3 -3 -3 -3 -4 -5 -6 -6 -6 -7 -6 -6 -6 -7 -6
-5 -5 -5 -5 -5 -5 -5 -5 -5 -4 -4 -4 -4 -4 -4 -4 -4 -5 -5 -5 -5 -5 -5 -5 -4 -4 -4 -4 -4 -5 -4 -4 -4 -3 -3 -4 -4 -4 -5 -6 -6 -6 -6 -6 -6 -7 -7
-6 -6 -5 -5 -5 -5 -5 -5 -5 -5 -5 -5 -5 -4 -4 -4 -4 -4 -4 -5 -4 -4 -5 -5 -5 -4 -5 -4 -4 -4 -5 -4 -4 -4 -3 -4 -4 -4 -5 -6 -5 -6 -6 -6 -7 -7 -7
-6 -6 -6 -6 -6 -6 -6 -6 -6 -6 -5 -5 -5 -5 -5 -4 -4 -4 -4 -4 -4 -4 -5 -5 -5 -5 -5 -5 -4 -4 -5 -4 -4 -4 -4 -4 -4 -4 -5 -4 -5 -6 -6 -6 -8 -7 -7
-7 -7 -7 -7 -7 -7 -7 -7 -7 -6 -6 -6 -6 -6 -5 -5 -5 -5 -5 -4 -4 -5 -5 -5 -5 -5 -5 -5 -4 -4 -5 -5 -4 -4 -4 -4 -4 -4 -4 -4 -4 -5 -6 -8 -8 -8 -8
-8 -8 -8 -8 -8 -8 -8 -7 -7 -7 -7 -7 -7 -7 -6 -6 -6 -5 -5 -5 -5 -4 -5 -5 -4 -5 -5 -5 -5 -4 -4 -4 -5 -4 -4 -4 -4 -3 -4 -4 -5 -6 -9 -8 -7 -8 -8
-8 -8 -8 -8 -8 -7 -7 -7 -7 -7 -7 -7 -7 -7 -7 -7 -7 -7 -6 -6 -6 -5 -4 -5 -5 -5 -5 -5 -5 -5 -5 -4 -4 -4 -5 -5 -4 -5 -5 -5 -6 -6 -7 -8 -8 -8 -8
-8 -8 -8 -7 -7 -7 -7 -7 -7 -6 -6 -6 -7 -7 -7 -7 -7 -7 -7 -7 -6 -6 -5 -5 -5 -5 -5 -5 -5 -5 -5 -5 -4 -5 -5 -5 -5 -6 -5 -5 -4 -5 -6 -8 -8 -8 -8
-8 -8 -7 -7 -7 -7 -7 -7 -6 -6 -6 -6 -6 -6 -6 -7 -6 -7 -6 -7 -6 -6 -6 -5 -6 -5 -5 -5 -5 -5 -5 -5 -5 -4 -5 -5 -5 -5 -5 -4 -5 -5 -5 -6 -9 -9 -8
-8 -8 -7 -7 -7 -7 -7 -7 -7 -7 -7 -7 -7 -7 -6 -5 -5 -6 -7 -7 -7 -6 -7 -7 -5 -5 -5 -5 -5 -5 -5 -5 -5 -4 -5 -4 -5 -5 -5 -5 -5 -5 -6 -6 -7 -9 -9
-8 -8 -8 -8 -8 -9 -9 -10 -11 -12 -12 -13 -14 -14 -14 -12 -10 -8 -6 -7 -7 -7 -7 -9 -6 -6 -6 -6 -6 -5 -5 -6 -6 -6 -5 -5 -5 -5 -5 -5 -5 -5 -5 -5 -6 -7 -7
-9 -9 -9 -10 -11 -12 -12 -14 -14 -15 -16 -16 -16 -16 -16 -17 -17 -16 -14 -10 -9 -8 -11 -12 -7 -7 -7 -6 -6 -6 -5 -6 -5 -5 -4 -5 -5 -5 -5 -5 -5 -5 -5 -5 -6 -5 -3
-10 -10 -11 -12 -12 -14 -14 -16 -16 -16 -16 -17 -16 -16 -16 -17 -17 -18 -17 -16 -14 -13 -15 -11 -8 -6 -6 -7 -7 -7 -6 -6 -6 -6 -6 -5 -5 -4 -5 -5 -5 -4 -5 -4 -3 -4 -5
-11 -12 -13 -14 -15 -16 -17 -17 -17 -16 -16 -16 -16 -16 -17 -17 -18 -19 -20 -20 -21 -21 -15 -14 -10 -9 -9 -10 -9 -8 -7 -6 -6 -6 -6 -6 -5 -5 -5 -5 -5 -5 -4 -4 -7 -7 -6
-12 -13 -14 -15 -16 -17 -17 -17 -17 -16 -16 -16 -16 -17 -17 -18 -19 -19 -22 -23 -23 -22 -20 -17 -14 -13 -14 -15 -11 -10 -9 -8 -7 -6 -7 -7 -9 -6 -5 -5 -5 -5 -5 -6 -6 -7 -6
-14 -15 -15 -16 -16 -17 -17 -17 -17 -17 -17 -17 -18 -18 -18 -19 -20 -20 -24 -24 -23 -23 -23 -20 -19 -16 -15 -15 -11 -11 -11 -11 -8 -7 -7 -7 -9 -8 -8 -4 -4 -5 -5 -5 -6 -5 -6
-14 -15 -16 -16 -16 -17 -17 -17 -17 -17 -17 -17 -18 -19 -19 -20 -20 -22 -24 -24 -24 -24 -24 -23 -21 -19 -16 -15 -13 -12 -14 -13 -9 -8 -7 -8 -8 -8 -5 -5 -5 -5 -5 -4 -4 -4 -5
-15 -16 -16 -16 -17 -17 -17 -17 -17 -17 -17 -18 -19 -19 -19 -20 -21 -21 -23 -24 -25 -26 -26 -24 -22 -21 -18 -16 -15 -13 -13 -9 -9 -9 -8 -7 -7 -7 -9 -10 -6 -5 -5 -5 -5 -6 -5
-16 -16 -16 -16 -17 -17 -17 -17 -17 -17 -18 -18 -19 -20 -20 -21 -22 -22 -23 -25 -26 -26 -26 -26 -24 -22 -20 -18 -18 -16 -14 -10 -10 -9 -8 -7 -7 -7 -8 -6 -7 -6 -5 -5 -5 -5 -6
-16 -16 -16 -17 -17 -17 -17 -17 -17 -18 -18 -19 -20 -21 -21 -21 -22 -23 -24 -25 -25 -26 -26 -26 -25 -24 -23 -20 -19 -17 -16 -12 -11 -10 -10 -9 -8 -7 -9 -10 -10 -9 -6 -5 -5 -5 -5
-16 -16 -17 -17 -17 -17 -17 -17 -17 -18 -18 -19 -20 -20 -21 -21 -22 -24 -24 -25 -25 -26 -26 -26 -26 -25 -25 -22 -21 -19 -17 -14 -12 -10 -11 -10 -9 -9 -10 -10 -10 -9 -7 -6 -6 -5 -5
-16 -16 -17 -17 -17 -17 -16 -17 -17 -18 -18 -19 -20 -20 -21 -22 -23 -24 -24 -25 -25 -25 -26 -26 -26 -26 -25 -24 -22 -21 -18 -16 -14 -12 -11 -10 -10 -10 -8 -9 -8 -7 -6 -6 -9 -8 -6
-16 -16 -17 -17 -17 -17 -16 -17 -17 -17 -18 -19 -19 -20 -20 -22 -23 -23 -24 -25 -25 -25 -25 -25 -25 -26 -25 -24 -23 -20 -20 -17 -15 -13 -12 -11 -11 -9 -9 -10 -8 -7 -8 -7 -7 -7 -7
-16 -17 -17 -16 -17 -16 -16 -17 -17 -18 -18 -18 -19 -19 -20 -21 -22 -23 -23 -24 -24 -25 -25 -25 -25 -25 -25 -24 -24 -21 -20 -18 -17 -15 -14 -13 -12 -11 -10 -9 -10 -9 -9 -9 -8 -7 -7
-16 -17 -17 -16 -17 -16 -16 -16 -16 -17 -17 -18 -19 -19 -20 -20 -21 -23 -23 -23 -24 -24 -25 -25 -25 -25 -25 -25 -23 -23 -23 -22 -18 -17 -16 -15 -13 -12 -10 -11 -11 -12 -12 -9 -8 -7 -7
-16 -17 -17 -17 -17 -16 -16 -16 -16 -17 -17 -17 -18 -19 -20 -20 -21 -22 -23 -23 -24 -24 -24 -25 -25 -25 -25 -24 -23 -23 -23 -22 -21 -20 -18 -16 -15 -14 -12 -11 -11 -14 -13 -10 -10 -11 -9
-16 -17 -17 -17 -17 -16 -16 -16 -16 -17 -16 -17 -18 -18 -19 -20 -21 -22 -22 -22 -23 -23 -24 -24 -25 -25 -25 -24 -24 -24 -24 -23 -23 -22 -21 -19 -16 -15 -14 -12 -12 -14 -11 -12 -12 -9 -7
-17 -17 -17 -17 -16 -16 -16 -16 -16 -17 -16 -17 -17 -17 -18 -19 -20 -20 -21 -21 -22 -22 -22 -23 -24 -24 -24 -24 -24 -23 -23 -23 -23 -22 -20 -19 -18 -18 -15 -14 -12 -13 -12 -10 -10 -8 -8

GFSGBSN_500_temp_036.txt.gz
Temp
-5 -5 -5 -5 -5 -4 -4 -4 -4 -4 -4 -4 -4 -4 -4 -4 -4 -4 -4 -4 -4 -4 -4 -4 -4 -4 -4 -3 -3 -4 -3 -3 -3 -3 -3 -3 -4 -4 -4 -5 -5 -5 -5 -5 -5 -6 -6
-5 -5 -5 -5 -5 -5 -5 -5 -5 -5 -5 -4 -4 -4 -4 -4 -4 -4 -4 -4 -4 -4 -4 -4 -4 -4 -4 -4 -3 -4 -4 -3 -3 -3 -3 -3 -3 -5 -5 -5 -5 -6 -7 -5 -6 -7 -7
-6 -6 -6 -6 -6 -6 -5 -5 -5 -5 -5 -5 -5 -5 -5 -4 -4 -4 -4 -4 -4 -4 -4 -4 -4 -4 -4 -5 -4 -4 -4 -3 -3 -3 -3 -4 -4 -4 -5 -5 -5 -6 -7 -7 -6 -7 -8
-6 -6 -6 -6 -6 -6 -6 -6 -6 -6 -6 -6 -5 -5 -5 -5 -5 -5 -4 -4 -4 -5 -4 -4 -4 -4 -4 -4 -4 -4 -4 -4 -4 -4 -4 -4 -4 -4 -4 -5 -6 -5 -6 -7 -7 -8 -7
-7 -7 -7 -7 -7 -7 -7 -7 -7 -6 -6 -6 -6 -6 -6 -5 -5 -5 -5 -5 -4 -4 -4 -5 -4 -4 -5 -5 -4 -5 -4 -4 -4 -4 -4 -4 -4 -4 -4 -4 -5 -5 -5 -6 -8 -7 -7
-7 -8 -7 -7 -7 -7 -7 -7 -7 -7 -6 -6 -6 -6 -6 -6 -6 -6 -6 -5 -5 -5 -4 -4 -4 -5 -5 -5 -5 -4 -5 -5 -4 -4 -4 -4 -4 -4 -4 -4 -3 -4 -5 -6 -8 -8 -7
-8 -8 -8 -8 -7 -7 -7 -7 -6 -6 -6 -6 -6 -6 -6 -6 -6 -6 -6 -6 -6 -5 -5 -5 -4 -4 -4 -5 -6 -5 -5 -5 -5 -4 -4 -4 -4 -3 -4 -4 -4 -5 -6 -6 -8 -7 -8
-8 -8 -7 -7 -7 -7 -6 -6 -6 -6 -6 -6 -6 -6 -6 -6 -6 -6 -6 -6 -6 -6 -5 -6 -5 -4 -5 -5 -5 -6 -5 -5 -5 -4 -4 -4 -3 -4 -4 -5 -5 -5 -6 -8 -8 -7 -7
-8 -7 -7 -7 -6 -6 -6 -6 -6 -6 -6 -6 -6 -6 -6 -5 -6 -6 -7 -6 -6 -6 -5 -5 -6 -5 -6 -5 -5 -6 -6 -5 -5 -5 -5 -4 -4 -5 -5 -5 -5 -5 -6 -7 -8 -7 -7
-8 -7 -7 -6 -6 -6 -6 -6 -6 -6 -6 -7 -7 -7 -8 -8 -6 -7 -6 -6 -6 -6 -5 -5 -6 -6 -6 -5 -5 -5 -6 -6 -6 -5 -5 -5 -5 -5 -5 -4 -4 -4 -5 -6 -8 -7 -7
-7 -7 -7 -7 -7 -7 -7 -8 -9 -10 -10 -12 -13 -13 -14 -14 -14 -14 -12 -9 -7 -6 -7 -8 -6 -6 -6 -6 -6 -6 -6 -6 -5 -5 -5 -4 -4 -4 -5 -4 -4 -4 -6 -6 -8 -8 -7
-8 -8 -8 -8 -8 -9 -10 -11 -13 -14 -14 -15 -15 -15 -16 -16 -15 -16 -15 -16 -14 -9 -8 -13 -10 -7 -7 -7 -7 -7 -6 -6 -7 -7 -6 -5 -5 -5 -5 -5 -5 -5 -7 -8 -7 -9 -8
-8 -9 -9 -10 -11 -12 -12 -13 -14 -16 -16 -16 -15 -15 -15 -16 -16 -16 -16 -16 -16 -14 -14 -15 -11 -8 -7 -6 -8 -8 -7 -6 -6 -6 -5 -6 -5 -5 -5 -6 -6 -6 -6 -7 -7 -6 -5
-9 -10 -11 -12 -13 -13 -14 -15 -16 -16 -16 -16 -15 -15 -16 -16 -16 -16 -16 -16 -16 -17 -19 -16 -12 -11 -9 -8 -8 -10 -9 -7 -7 -7 -7 -5 -5 -5 -5 -5 -5 -5 -5 -4 -4 -5 -6
-11 -12 -13 -14 -14 -14 -15 -16 -16 -16 -16 -16 -15 -15 -15 -16 -16 -16 -17 -18 -20 -18 -19 -16 -14 -16 -15 -14 -10 -12 -11 -8 -7 -7 -6 -7 -5 -7 -6 -6 -6 -6 -4 -5 -6 -7 -7
-12 -13 -13 -14 -14 -15 -16 -16 -16 -16 -16 -16 -16 -16 -15 -17 -18 -18 -18 -19 -20 -20 -19 -19 -17 -18 -15 -15 -12 -12 -13 -12 -11 -8 -8 -7 -10 -7 -6 -7 -6 -6 -6 -6 -7 -7 -7
-13 -13 -14 -15 -15 -16 -16 -16 -16 -16 -16 -17 -17 -17 -17 -19 -19 -19 -19 -20 -20 -21 -21 -22 -20 -19 -16 -15 -14 -12 -13 -13 -13 -12 -10 -9 -9 -9 -9 -7 -5 -6 -8 -7 -7 -6 -7
-13 -14 -14 -15 -15 -16 -16 -16 -16 -16 -16 -17 -17 -17 -18 -20 -20 -21 -23 -21 -22 -21 -23 -25 -23 -20 -19 -15 -15 -14 -13 -13 -12 -13 -12 -10 -9 -9 -9 -9 -8 -6 -6 -6 -5 -5 -6
-14 -14 -15 -15 -15 -16 -16 -16 -16 -16 -17 -17 -17 -18 -19 -19 -20 -21 -22 -22 -22 -22 -24 -24 -25 -24 -21 -17 -15 -14 -13 -13 -12 -12 -13 -12 -9 -9 -10 -10 -9 -7 -6 -6 -7 -7 -5
-15 -15 -15 -16 -16 -16 -16 -16 -16 -17 -17 -17 -18 -18 -19 -19 -21 -22 -22 -22 -23 -24 -25 -24 -25 -25 -21 -19 -19 -16 -14 -14 -13 -13 -11 -10 -9 -9 -9 -7 -8 -9 -9 -8 -7 -5 -6
-15 -15 -16 -16 -16 -16 -16 -16 -16 -17 -17 -17 -17 -19 -19 -20 -21 -22 -23 -23 -24 -24 -24 -25 -25 -25 -23 -21 -20 -18 -15 -14 -13 -13 -12 -12 -10 -10 -10 -9 -9 -8 -7 -8 -6 -6 -6
-15 -15 -16 -16 -16 -16 -16 -16 -16 -16 -17 -17 -17 -19 -20 -20 -21 -22 -23 -24 -24 -24 -25 -25 -26 -25 -24 -25 -23 -20 -18 -15 -14 -13 -12 -10 -10 -10 -10 -9 -10 -10 -9 -7 -9 -8 -8
-15 -15 -16 -16 -16 -16 -16 -15 -16 -16 -17 -17 -17 -19 -20 -21 -22 -22 -23 -23 -24 -24 -25 -25 -25 -25 -24 -25 -24 -21 -20 -19 -15 -14 -13 -13 -12 -10 -10 -8 -8 -10 -10 -9 -9 -9 -9
-15 -16 -16 -17 -16 -17 -16 -15 -16 -17 -17 -17 -17 -18 -19 -21 -21 -21 -22 -23 -24 -24 -24 -25 -25 -25 -25 -24 -23 -22 -20 -19 -18 -15 -13 -13 -10 -9 -10 -10 -10 -9 -10 -10 -10 -9 -9
-16 -16 -16 -16 -17 -16 -16 -15 -16 -17 -17 -17 -17 -17 -18 -20 -21 -21 -22 -23 -24 -24 -24 -25 -25 -25 -25 -24 -22 -21 -20 -20 -19 -16 -14 -14 -11 -11 -11 -10 -10 -9 -10 -10 -9 -10 -9
-16 -16 -16 -17 -17 -16 -16 -15 -16 -17 -17 -17 -17 -17 -18 -19 -20 -21 -21 -22 -22 -23 -24 -25 -25 -25 -25 -24 -23 -22 -20 -20 -20 -18 -15 -14 -14 -13 -12 -11 -10 -11 -11 -11 -10 -10 -10
-16 -16 -16 -17 -17 -16 -16 -15 -16 -17 -17 -17 -16 -17 -18 -18 -19 -20 -21 -21 -22 -22 -23 -24 -24 -25 -24 -24 -23 -22 -21 -21 -20 -19 -18 -16 -15 -14 -14 -11 -12 -11 -11 -11 -11 -11 -10
-16 -16 -16 -17 -17 -16 -15 -16 -16 -16 -17 -16 -16 -17 -17 -17 -18 -19 -20 -20 -21 -22 -22 -23 -24 -24 -23 -23 -23 -23 -22 -21 -20 -19 -19 -18 -17 -15 -15 -14 -13 -12 -12 -12 -12 -11 -10
-16 -16 -16 -17 -17 -16 -16 -16 -16 -17 -17 -16 -16 -17 -17 -17 -18 -18 -19 -20 -20 -21 -22 -22 -22 -23 -23 -23 -23 -22 -22 -22 -21 -20 -19 -19 -19 -18 -16 -14 -13 -13 -12 -12 -12 -12 -11

GFSGBSN_500_temp_042.txt.gz
Temp
-6 -6 -6 -5 -5 -5 -5 -5 -5 -5 -5 -5 -5 -5 -5 -5 -4 -4 -4 -4 -4 -4 -4 -4 -4 -4 -4 -4 -3 -4 -4 -3 -4 -4 -4 -4 -4 -4 -4 -4 -4 -4 -4 -4 -4 -4 -4
-6 -6 -6 -6 -6 -6 -6 -6 -5 -5 -5 -5 -5 -5 -5 -5 -5 -5 -4 -4 -4 -4 -4 -4 -4 -4 -4 -5 -4 -4 -4 -4 -4 -4 -4 -3 -4 -5 -6 -5 -4 -6 -5 -4 -5 -5 -5
-7 -7 -6 -7 -7 -7 -7 -6 -6 -6 -6 -6 -6 -6 -5 -5 -5 -5 -5 -5 -4 -4 -4 -4 -4 -4 -4 -5 -4 -4 -5 -4 -4 -4 -4 -4 -4 -4 -5 -5 -5 -6 -5 -4 -5 -5 -5
-7 -7 -7 -7 -8 -8 -7 -7 -7 -7 -7 -7 -6 -6 -6 -6 -6 -6 -5 -5 -5 -5 -4 -4 -4 -4 -4 -4 -4 -5 -5 -5 -5 -5 -5 -4 -4 -4 -5 -5 -5 -4 -4 -3 -4 -6 -6
-8 -8 -8 -8 -8 -7 -7 -7 -7 -7 -7 -6 -6 -6 -6 -6 -6 -6 -6 -6 -5 -5 -5 -5 -4 -4 -5 -5 -5 -4 -5 -5 -5 -5 -5 -5 -4 -4 -5 -5 -6 -4 -3 -3 -5 -6 -6
-8 -8 -8 -8 -8 -7 -7 -7 -7 -7 -6 -6 -6 -6 -6 -6 -6 -6 -6 -6 -6 -5 -5 -5 -5 -5 -5 -5 -5 -5 -5 -5 -5 -5 -5 -5 -4 -4 -4 -4 -3 -3 -3 -4 -4 -6 -7
-8 -8 -7 -7 -7 -7 -7 -7 -7 -6 -6 -6 -6 -6 -6 -6 -6 -6 -6 -6 -6 -6 -6 -5 -5 -5 -5 -5 -5 -5 -5 -6 -6 -5 -5 -5 -4 -4 -4 -4 -4 -5 -5 -4 -5 -6 -7
-8 -8 -8 -8 -8 -7 -7 -7 -7 -7 -7 -7 -6 -6 -6 -6 -6 -6 -6 -6 -6 -5 -6 -6 -5 -5 -6 -5 -5 -6 -5 -5 -5 -5 -5 -5 -3 -5 -5 -5 -5 -6 -5 -5 -6 -6 -7
-8 -8 -8 -8 -8 -8 -8 -7 -7 -7 -7 -7 -7 -6 -6 -7 -7 -8 -7 -7 -7 -6 -5 -5 -5 -5 -5 -5 -5 -6 -7 -6 -6 -6 -6 -5 -5 -6 -6 -5 -5 -5 -5 -6 -5 -7 -6
-8 -8 -8 -8 -8 -8 -8 -8 -8 -8 -8 -8 -8 -9 -9 -12 -12 -13 -13 -13 -12 -12 -10 -8 -7 -7 -6 -6 -6 -7 -7 -8 -7 -6 -7 -6 -6 -6 -6 -6 -6 -5 -6 -6 -6 -7 -7
-9 -9 -9 -9 -9 -8 -8 -8 -8 -9 -9 -10 -11 -12 -14 -14 -15 -14 -15 -15 -14 -15 -15 -12 -12 -11 -9 -7 -6 -7 -7 -8 -7 -7 -6 -5 -6 -6 -6 -5 -6 -5 -6 -6 -7 -7 -8
-9 -9 -9 -9 -8 -8 -8 -9 -10 -11 -12 -13 -13 -14 -15 -14 -14 -14 -14 -14 -14 -14 -14 -15 -14 -14 -13 -11 -8 -8 -8 -6 -7 -9 -7 -7 -7 -7 -6 -7 -6 -6 -7 -7 -8 -8 -8
-10 -9 -9 -9 -9 -9 -9 -10 -12 -12 -13 -14 -15 -15 -15 -14 -14 -14 -15 -15 -15 -15 -15 -15 -14 -15 -15 -14 -12 -11 -9 -8 -8 -8 -7 -9 -8 -7 -8 -8 -8 -7 -7 -7 -8 -9 -8
-10 -10 -9 -9 -10 -10 -11 -12 -13 -14 -14 -15 -15 -15 -15 -15 -15 -15 -15 -15 -16 -16 -16 -17 -15 -15 -15 -16 -15 -14 -12 -11 -8 -7 -7 -8 -8 -7 -8 -7 -8 -7 -7 -6 -5 -6 -5
-10 -10 -10 -10 -10 -11 -12 -13 -14 -15 -15 -15 -15 -15 -14 -15 -15 -15 -16 -16 -16 -17 -17 -17 -17 -16 -16 -16 -16 -15 -14 -14 -12 -10 -8 -9 -7 -9 -8 -7 -8 -8 -6 -6 -6 -6 -6
-11 -11 -10 -11 -11 -13 -13 -14 -14 -15 -16 -15 -15 -15 -14 -15 -15 -15 -16 -17 -18 -18 -18 -18 -19 -18 -18 -16 -16 -16 -15 -15 -16 -13 -9 -9 -7 -8 -8 -9 -8 -7 -7 -7 -6 -6 -6
-11 -11 -11 -11 -13 -14 -14 -14 -15 -15 -16 -16 -16 -15 -15 -16 -15 -16 -17 -18 -19 -19 -19 -20 -21 -21 -20 -18 -16 -16 -16 -16 -16 -15 -11 -10 -7 -8 -11 -10 -7 -7 -7 -8 -9 -7 -7
-12 -11 -12 -13 -13 -14 -15 -15 -15 -15 -16 -15 -16 -16 -15 -15 -17 -18 -18 -19 -20 -20 -20 -22 -21 -22 -21 -19 -18 -17 -16 -16 -15 -16 -15 -12 -8 -9 -10 -7 -8 -10 -8 -10 -9 -7 -7
-12 -12 -13 -14 -14 -14 -15 -15 -15 -15 -16 -15 -15 -16 -16 -16 -17 -18 -19 -20 -21 -21 -21 -22 -22 -22 -22 -21 -20 -19 -18 -18 -15 -15 -16 -14 -11 -8 -8 -10 -11 -10 -10 -8 -7 -8 -7
-12 -13 -14 -14 -14 -15 -15 -15 -16 -16 -16 -15 -16 -16 -16 -16 -17 -17 -18 -20 -21 -21 -22 -22 -23 -23 -23 -23 -22 -21 -19 -18 -16 -15 -15 -14 -12 -9 -9 -10 -11 -9 -10 -10 -9 -8 -6
-13 -14 -14 -15 -15 -15 -15 -15 -16 -16 -15 -15 -16 -16 -17 -17 -18 -18 -19 -20 -21 -22 -22 -23 -23 -23 -23 -23 -24 -23 -22 -18 -16 -17 -15 -14 -12 -11 -9 -9 -10 -8 -10 -10 -9 -8 -7
-14 -15 -15 -15 -15 -16 -16 -16 -16 -16 -16 -16 -16 -17 -17 -17 -17 -18 -19 -20 -21 -22 -22 -23 -23 -24 -24 -24 -24 -24 -24 -21 -16 -18 -16 -14 -13 -11 -9 -10 -10 -10 -10 -10 -10 -9 -8
-16 -15 -15 -15 -16 -16 -16 -16 -16 -15 -16 -16 -16 -16 -17 -17 -18 -18 -19 -20 -21 -22 -22 -23 -23 -24 -24 -25 -25 -24 -24 -23 -17 -18 -18 -14 -14 -11 -11 -11 -11 -11 -11 -11 -10 -10 -9
-17 -15 -15 -16 -16 -16 -16 -16 -15 -15 -16 -16 -16 -16 -17 -17 -18 -18 -19 -20 -21 -22 -22 -23 -23 -24 -24 -24 -24 -24 -24 -21 -17 -18 -17 -14 -13 -12 -13 -12 -12 -11 -11 -11 -10 -10 -10
-15 -16 -16 -16 -16 -16 -16 -16 -15 -15 -16 -16 -16 -16 -17 -17 -18 -19 -19 -20 -21 -21 -22 -23 -24 -24 -24 -24 -24 -24 -23 -19 -17 -18 -17 -14 -13 -13 -13 -12 -11 -11 -10 -10 -10 -10 -9
-16 -16 -17 -17 -17 -16 -15 -16 -16 -16 -16 -15 -16 -16 -17 -17 -18 -19 -19 -20 -21 -21 -22 -23 -23 -24 -24 -24 -24 -23 -22 -19 -17 -18 -17 -14 -13 -13 -13 -12 -12 -11 -10 -10 -10 -9 -10
-16 -17 -17 -17 -17 -16 -16 -16 -16 -16 -16 -16 -16 -16 -16 -17 -18 -19 -19 -20 -20 -21 -22 -23 -24 -24 -24 -23 -23 -21 -21 -20 -19 -18 -18 -15 -13 -13 -13 -12 -12 -11 -10 -10 -11 -10 -10
-17 -17 -17 -17 -16 -16 -16 -16 -16 -16 -16 -16 -16 -15 -15 -17 -18 -18 -19 -19 -20 -21 -22 -22 -23 -23 -23 -22 -22 -21 -20 -20 -19 -18 -18 -15 -13 -13 -13 -12 -12 -10 -9 -10 -11 -10 -10
-16 -16 -16 -16 -16 -16 -16 -16 -16 -16 -16 -16 -16 -15 -16 -17 -17 -18 -18 -19 -19 -20 -21 -22 -22 -23 -23 -22 -22 -22 -20 -19 -19 -19 -18 -16 -13 -13 -13 -12 -12 -10 -9 -10 -10 -10 -10

GFSGBSN_500_temp_045.txt.gz
Temp
-6 -6 -6 -6 -6 -6 -6 -6 -6 -6 -6 -6 -5 -5 -5 -5 -5 -4 -4 -4 -4 -4 -4 -4 -5 -5 -4 -5 -4 -4 -4 -4 -4 -4 -4 -4 -4 -4 -4 -4 -5 -4 -4 -6 -5 -5 -4
-7 -7 -7 -7 -7 -7 -7 -6 -6 -6 -6 -6 -6 -6 -6 -5 -5 -5 -5 -5 -4 -4 -4 -4 -5 -5 -5 -5 -4 -4 -4 -4 -4 -4 -4 -4 -4 -4 -5 -4 -5 -6 -5 -5 -6 -5 -5
-7 -7 -7 -7 -7 -7 -7 -7 -7 -7 -7 -7 -7 -7 -6 -6 -6 -6 -6 -5 -5 -5 -4 -4 -4 -5 -5 -5 -5 -5 -5 -5 -5 -4 -5 -5 -4 -4 -4 -4 -7 -5 -4 -5 -5 -4 -4
-8 -8 -8 -8 -8 -8 -7 -7 -7 -7 -7 -7 -7 -7 -6 -6 -6 -6 -6 -6 -6 -6 -5 -5 -4 -5 -5 -5 -5 -5 -4 -5 -5 -5 -5 -4 -4 -5 -5 -4 -5 -4 -3 -4 -4 -4 -3
-8 -8 -8 -8 -8 -8 -8 -7 -7 -7 -7 -7 -7 -7 -6 -6 -6 -6 -6 -6 -6 -6 -6 -5 -5 -5 -5 -5 -5 -5 -5 -5 -5 -5 -5 -4 -4 -4 -5 -4 -4 -4 -4 -3 -4 -4 -3
-8 -8 -8 -8 -8 -8 -8 -8 -7 -7 -7 -7 -7 -6 -6 -6 -6 -6 -6 -6 -6 -6 -6 -6 -5 -6 -5 -5 -5 -5 -5 -5 -6 -5 -4 -4 -4 -4 -4 -4 -3 -3 -3 -4 -5 -6 -5
-8 -8 -8 -8 -8 -8 -7 -7 -7 -7 -7 -7 -7 -7 -7 -7 -7 -6 -6 -6 -6 -6 -6 -6 -6 -6 -6 -5 -6 -6 -6 -6 -6 -5 -5 -5 -5 -4 -5 -5 -5 -5 -4 -4 -6 -7 -6
-8 -8 -8 -8 -8 -8 -7 -7 -7 -8 -7 -7 -7 -7 -7 -7 -6 -6 -6 -6 -6 -6 -7 -7 -6 -6 -5 -5 -6 -6 -7 -6 -6 -6 -6 -5 -4 -5 -6 -6 -6 -5 -5 -5 -6 -7 -6
-8 -8 -8 -8 -8 -8 -8 -8 -8 -8 -7 -7 -7 -8 -8 -7 -7 -8 -8 -8 -8 -7 -7 -7 -7 -7 -6 -5 -6 -6 -6 -7 -6 -6 -6 -5 -5 -6 -6 -6 -6 -6 -5 -6 -6 -8 -7
-9 -9 -9 -9 -9 -9 -8 -8 -8 -8 -8 -8 -8 -10 -10 -10 -11 -11 -11 -13 -13 -13 -11 -10 -9 -8 -8 -7 -7 -8 -7 -7 -7 -6 -7 -6 -7 -7 -6 -6 -6 -6 -6 -6 -7 -9 -7
-10 -10 -9 -9 -9 -9 -8 -8 -8 -8 -9 -9 -10 -11 -12 -12 -13 -14 -14 -14 -14 -14 -14 -13 -13 -12 -11 -10 -9 -10 -9 -8 -7 -7 -7 -6 -6 -6 -7 -6 -7 -6 -7 -7 -8 -8 -9
-10 -10 -9 -9 -9 -9 -9 -9 -9 -10 -10 -10 -11 -13 -13 -14 -14 -14 -14 -14 -14 -14 -14 -14 -14 -14 -14 -13 -12 -12 -11 -9 -8 -8 -7 -6 -8 -7 -7 -8 -7 -7 -8 -8 -9 -9 -9
-10 -9 -9 -9 -9 -10 -10 -10 -10 -11 -12 -12 -13 -14 -15 -15 -14 -14 -14 -14 -14 -14 -14 -14 -14 -15 -15 -15 -14 -14 -13 -12 -10 -9 -8 -7 -7 -7 -8 -8 -9 -8 -7 -8 -8 -9 -6
-10 -10 -10 -10 -10 -10 -10 -11 -12 -12 -13 -14 -14 -15 -15 -15 -15 -14 -14 -14 -14 -14 -14 -15 -15 -16 -16 -16 -16 -16 -14 -14 -13 -10 -10 -8 -8 -7 -8 -8 -8 -8 -8 -7 -6 -6 -6
-10 -10 -10 -11 -11 -11 -11 -12 -13 -13 -14 -14 -15 -15 -16 -15 -15 -15 -15 -15 -14 -15 -15 -16 -16 -16 -16 -16 -17 -18 -16 -16 -15 -13 -11 -10 -8 -7 -8 -8 -9 -8 -7 -7 -7 -6 -6
-11 -10 -11 -11 -11 -12 -12 -13 -14 -14 -14 -15 -15 -15 -16 -15 -15 -15 -15 -15 -15 -15 -16 -17 -17 -17 -17 -17 -17 -18 -18 -17 -17 -16 -14 -11 -9 -8 -8 -10 -10 -9 -8 -8 -7 -7 -6
-11 -11 -12 -12 -12 -13 -13 -14 -14 -15 -15 -15 -15 -15 -15 -16 -15 -15 -15 -16 -16 -16 -17 -18 -18 -19 -19 -19 -19 -19 -18 -18 -17 -17 -16 -13 -10 -10 -10 -10 -9 -9 -8 -8 -9 -7 -5
-11 -11 -12 -12 -13 -14 -14 -14 -14 -15 -15 -15 -15 -15 -16 -15 -16 -16 -16 -16 -17 -18 -19 -19 -20 -20 -20 -20 -21 -20 -19 -18 -18 -16 -17 -14 -11 -12 -10 -9 -9 -10 -9 -9 -8 -6 -6
-11 -12 -13 -13 -14 -15 -15 -15 -15 -15 -15 -15 -16 -15 -16 -15 -16 -17 -17 -18 -18 -19 -20 -20 -21 -21 -22 -22 -22 -22 -20 -18 -18 -18 -17 -16 -13 -11 -12 -11 -10 -11 -10 -9 -8 -9 -7
-12 -13 -14 -15 -16 -15 -15 -16 -16 -16 -16 -15 -15 -16 -16 -15 -16 -16 -17 -18 -19 -19 -21 -21 -21 -22 -22 -23 -23 -22 -22 -20 -18 -18 -17 -16 -15 -12 -12 -12 -12 -11 -9 -9 -9 -9 -7
-12 -13 -15 -16 -16 -15 -15 -16 -16 -16 -15 -15 -15 -16 -16 -16 -16 -17 -18 -18 -19 -20 -21 -21 -22 -22 -23 -23 -23 -23 -23 -22 -20 -18 -17 -16 -16 -13 -12 -13 -12 -10 -9 -9 -8 -7 -7
-14 -15 -16 -16 -16 -15 -16 -16 -16 -16 -15 -15 -16 -16 -16 -16 -17 -18 -18 -19 -20 -21 -21 -22 -22 -23 -23 -23 -23 -23 -24 -23 -22 -19 -17 -16 -16 -14 -12 -13 -12 -11 -11 -9 -9 -9 -8
-16 -16 -16 -16 -16 -16 -16 -16 -16 -16 -16 -15 -15 -16 -17 -17 -18 -18 -19 -19 -20 -21 -22 -22 -22 -23 -24 -24 -24 -24 -24 -24 -23 -18 -17 -17 -17 -14 -12 -13 -12 -11 -11 -10 -11 -10 -9
-16 -16 -17 -17 -18 -17 -17 -16 -16 -15 -16 -15 -15 -16 -16 -17 -17 -18 -19 -20 -21 -21 -22 -22 -23 -23 -24 -24 -24 -24 -24 -24 -24 -18 -17 -17 -18 -14 -14 -13 -13 -12 -11 -11 -11 -10 -9
-16 -17 -17 -17 -17 -17 -17 -16 -16 -16 -16 -16 -16 -15 -16 -16 -17 -18 -20 -20 -21 -21 -22 -22 -23 -23 -24 -24 -24 -24 -24 -24 -24 -19 -19 -18 -18 -15 -15 -14 -14 -13 -12 -11 -11 -10 -9
-16 -16 -16 -16 -16 -16 -16 -16 -16 -16 -16 -16 -16 -15 -15 -16 -17 -18 -20 -20 -21 -21 -22 -23 -23 -23 -23 -23 -24 -24 -24 -23 -21 -20 -18 -18 -17 -16 -15 -14 -14 -13 -12 -12 -11 -11 -10
-16 -16 -16 -16 -16 -16 -16 -16 -16 -16 -16 -16 -16 -15 -16 -16 -17 -18 -19 -20 -21 -21 -22 -23 -23 -23 -23 -23 -23 -23 -22 -21 -20 -18 -18 -18 -17 -14 -14 -14 -13 -13 -12 -12 -12 -10 -10
-15 -15 -16 -16 -16 -16 -16 -16 -16 -16 -16 -16 -16 -15 -16 -17 -17 -17 -18 -19 -20 -21 -22 -22 -23 -22 -23 -22 -22 -22 -21 -20 -19 -18 -18 -18 -16 -14 -14 -13 -13 -12 -12 -12 -11 -10 -10
-15 -15 -16 -16 -16 -16 -16 -16 -16 -16 -16 -16 -15 -16 -16 -17 -17 -17 -18 -19 -19 -20 -21 -22 -22 -22 -22 -22 -22 -20 -20 -19 -19 -18 -18 -18 -15 -14 -13 -13 -13 -12 -12 -11 -11 -10 -9

GFSGBSN_500_temp_048.txt.gz
Temp
-7 -7 -7 -7 -7 -7 -7 -6 -6 -6 -6 -6 -6 -6 -6 -6 -5 -5 -5 -5 -5 -5 -5 -5 -5 -5 -5 -5 -5 -5 -4 -5 -4 -4 -4 -4 -4 -5 -5 -6 -5 -5 -5 -5 -5 -6 -5
-7 -7 -7 -7 -7 -7 -7 -7 -7 -7 -7 -7 -7 -7 -7 -7 -6 -6 -6 -6 -5 -5 -5 -5 -5 -5 -5 -5 -4 -5 -5 -5 -5 -5 -4 -4 -4 -4 -5 -5 -6 -6 -5 -5 -5 -6 -5
-8 -8 -8 -8 -8 -8 -8 -8 -8 -7 -7 -7 -7 -7 -7 -7 -6 -6 -6 -6 -6 -6 -6 -5 -5 -6 -5 -5 -5 -5 -5 -5 -5 -5 -5 -4 -4 -4 -4 -5 -7 -5 -5 -5 -5 -5 -6
-9 -8 -8 -8 -8 -8 -8 -8 -7 -7 -7 -7 -7 -7 -7 -7 -7 -6 -6 -6 -6 -6 -6 -6 -6 -6 -6 -5 -5 -5 -5 -5 -5 -5 -5 -5 -4 -4 -4 -4 -6 -5 -4 -5 -5 -4 -6
-8 -8 -8 -8 -8 -8 -8 -8 -7 -7 -7 -7 -7 -7 -7 -7 -7 -7 -6 -6 -6 -6 -6 -6 -6 -6 -6 -6 -6 -6 -5 -5 -5 -5 -5 -5 -5 -5 -4 -4 -5 -4 -4 -5 -5 -5 -6
-8 -8 -8 -8 -8 -8 -8 -8 -8 -7 -7 -7 -7 -7 -7 -7 -7 -7 -7 -7 -7 -7 -6 -6 -6 -6 -6 -6 -6 -6 -6 -6 -6 -6 -5 -5 -5 -5 -5 -4 -4 -5 -4 -5 -5 -6 -5
-8 -8 -8 -8 -8 -8 -8 -8 -8 -8 -8 -8 -8 -7 -7 -7 -7 -7 -7 -7 -7 -6 -6 -6 -6 -6 -6 -6 -6 -6 -6 -6 -6 -6 -5 -5 -5 -5 -5 -5 -6 -5 -5 -6 -7 -6 -6
-9 -9 -9 -9 -9 -8 -8 -8 -8 -8 -8 -7 -8 -8 -7 -7 -7 -7 -7 -7 -7 -7 -7 -6 -6 -6 -6 -6 -6 -6 -6 -6 -6 -6 -6 -6 -5 -6 -6 -6 -6 -6 -5 -6 -7 -7 -5
-9 -9 -9 -9 -9 -9 -9 -9 -9 -9 -8 -8 -8 -8 -8 -8 -8 -8 -8 -8 -9 -8 -8 -8 -7 -7 -7 -7 -7 -6 -6 -6 -6 -6 -6 -6 -6 -6 -7 -7 -6 -5 -5 -6 -7 -8 -7
-10 -10 -10 -10 -9 -9 -9 -9 -9 -9 -9 -8 -8 -9 -9 -9 -10 -11 -10 -10 -11 -12 -11 -11 -11 -10 -10 -9 -8 -8 -7 -7 -7 -7 -7 -6 -7 -6 -7 -7 -7 -6 -6 -7 -7 -8 -8
-10 -10 -10 -9 -9 -9 -9 -9 -9 -10 -9 -9 -9 -10 -10 -11 -11 -12 -13 -13 -14 -14 -13 -12 -13 -13 -13 -13 -11 -10 -10 -9 -9 -8 -8 -6 -7 -6 -7 -7 -7 -7 -7 -7 -8 -8 -9
-10 -10 -10 -10 -9 -9 -10 -10 -10 -10 -10 -10 -10 -11 -12 -12 -13 -14 -14 -14 -14 -14 -14 -14 -14 -14 -14 -14 -14 -13 -12 -12 -11 -10 -9 -8 -8 -7 -7 -8 -8 -8 -8 -8 -9 -9 -8
-10 -10 -10 -11 -10 -10 -10 -10 -10 -11 -11 -11 -11 -13 -13 -13 -14 -14 -15 -15 -14 -14 -14 -14 -14 -14 -14 -14 -14 -14 -14 -14 -13 -11 -11 -10 -9 -8 -8 -8 -9 -8 -8 -8 -9 -9 -4
-11 -11 -11 -11 -11 -11 -11 -11 -12 -11 -12 -13 -13 -13 -14 -14 -14 -15 -15 -15 -14 -14 -14 -14 -14 -15 -14 -14 -14 -14 -14 -14 -15 -14 -12 -11 -10 -9 -8 -8 -8 -9 -8 -8 -7 -7 -5
-11 -12 -12 -11 -11 -11 -11 -11 -12 -13 -13 -14 -14 -14 -14 -14 -15 -15 -15 -15 -15 -15 -15 -15 -15 -15 -15 -15 -15 -15 -15 -15 -15 -15 -15 -13 -10 -10 -10 -9 -9 -9 -8 -8 -8 -6 -6
-12 -12 -12 -12 -11 -11 -12 -12 -14 -14 -14 -14 -14 -15 -15 -15 -15 -15 -15 -15 -15 -15 -15 -15 -16 -16 -16 -16 -16 -16 -16 -16 -17 -16 -15 -15 -12 -11 -11 -10 -11 -9 -9 -9 -9 -8 -6
-12 -12 -12 -12 -12 -12 -13 -14 -15 -15 -15 -15 -15 -15 -15 -15 -15 -15 -15 -15 -15 -16 -16 -16 -17 -17 -17 -17 -17 -17 -17 -17 -17 -17 -17 -16 -14 -13 -12 -12 -11 -10 -10 -9 -9 -8 -6
-12 -13 -13 -13 -13 -14 -15 -15 -15 -15 -16 -16 -16 -15 -15 -15 -15 -15 -15 -15 -16 -16 -17 -17 -18 -18 -18 -18 -18 -18 -18 -18 -18 -18 -18 -17 -16 -14 -13 -13 -12 -12 -10 -9 -9 -7 -7
-13 -13 -13 -14 -15 -16 -16 -16 -15 -16 -16 -16 -15 -15 -15 -15 -15 -16 -16 -17 -17 -18 -18 -18 -19 -19 -20 -20 -20 -20 -20 -20 -20 -20 -20 -18 -17 -15 -14 -15 -13 -13 -11 -10 -8 -9 -7
-14 -13 -14 -16 -17 -16 -16 -16 -16 -16 -15 -15 -15 -15 -15 -15 -16 -16 -17 -18 -18 -18 -19 -19 -20 -20 -21 -21 -21 -21 -21 -22 -22 -22 -21 -19 -18 -17 -15 -15 -14 -13 -12 -11 -9 -8 -7
-14 -16 -16 -16 -17 -17 -17 -17 -17 -16 -15 -15 -15 -15 -15 -15 -15 -16 -17 -18 -18 -19 -19 -20 -21 -21 -22 -22 -22 -22 -23 -23 -23 -23 -22 -21 -19 -18 -16 -15 -14 -13 -12 -11 -9 -7 -7
-16 -15 -16 -16 -17 -18 -18 -18 -17 -16 -15 -15 -15 -15 -15 -15 -15 -16 -17 -17 -18 -19 -20 -21 -22 -22 -22 -22 -23 -23 -24 -24 -24 -23 -23 -21 -19 -18 -17 -16 -15 -14 -13 -12 -10 -8 -7
-15 -16 -16 -16 -16 -17 -17 -17 -16 -16 -16 -16 -15 -15 -15 -15 -15 -16 -17 -17 -18 -19 -21 -22 -22 -23 -23 -23 -23 -24 -23 -24 -24 -24 -23 -21 -19 -18 -17 -16 -15 -14 -13 -12 -10 -8 -8
-15 -15 -16 -16 -16 -16 -16 -16 -16 -16 -16 -16 -16 -16 -15 -15 -15 -16 -17 -18 -19 -21 -22 -22 -23 -23 -23 -24 -24 -24 -24 -24 -24 -24 -23 -21 -19 -18 -16 -15 -15 -14 -14 -12 -11 -9 -9
-15 -15 -15 -16 -16 -16 -16 -16 -16 -16 -16 -16 -16 -16 -15 -15 -16 -17 -18 -19 -20 -21 -22 -23 -23 -24 -23 -24 -24 -24 -24 -24 -24 -24 -23 -21 -19 -18 -17 -16 -15 -15 -14 -13 -12 -10 -9
-15 -15 -15 -16 -15 -15 -16 -16 -16 -16 -16 -16 -16 -16 -16 -16 -16 -17 -18 -19 -20 -21 -22 -23 -24 -23 -23 -23 -23 -23 -24 -24 -24 -24 -24 -21 -19 -18 -18 -16 -15 -15 -14 -13 -12 -12 -11
-15 -15 -15 -15 -15 -15 -15 -16 -16 -16 -16 -16 -16 -16 -16 -16 -17 -18 -18 -19 -20 -21 -23 -23 -23 -22 -22 -22 -23 -23 -23 -23 -23 -23 -22 -20 -19 -18 -17 -17 -15 -15 -14 -12 -12 -11 -11
-15 -15 -15 -15 -16 -16 -16 -16 -16 -16 -16 -16 -16 -16 -16 -16 -16 -17 -18 -19 -20 -21 -22 -22 -22 -21 -22 -22 -22 -22 -22 -22 -22 -21 -20 -20 -18 -18 -16 -16 -15 -14 -13 -13 -12 -12 -11
-16 -16 -16 -16 -16 -16 -16 -16 -16 -16 -16 -16 -16 -16 -16 -17 -17 -17 -18 -19 -20 -20 -22 -22 -21 -21 -21 -21 -21 -21 -21 -21 -21 -20 -20 -19 -19 -17 -16 -14 -15 -14 -14 -13 -12 -12 -11